GFSSGP_sfc_rhum_000.txt.gz
RH
76 68 62 67 68 49 54 55 46 58 63 60 49 54 72 69 59 86 80 80 82 85 86 80 85 84 83 84 84 84 84 83 83 82 84 84 84 84 83 82 79 79 76 75 75 75 74 72 73
64 58 63 76 66 47 47 43 57 44 49 50 52 56 67 77 63 74 84 79 76 82 87 87 86 85 84 84 85 84 82 84 85 86 86 85 85 84 81 76 76 76 75 74 72 71 71 71 72
52 47 67 78 59 46 53 46 46 40 43 47 55 55 66 82 68 71 72 70 75 86 87 85 86 85 83 85 85 84 84 84 85 86 85 85 83 80 76 75 74 75 75 72 71 69 70 69 69
55 55 56 52 35 31 45 49 44 45 44 49 57 73 63 57 62 63 62 67 78 85 84 85 84 82 84 85 85 83 83 83 85 85 83 81 79 74 74 74 75 75 73 72 70 70 70 70 70
56 57 56 40 32 26 40 42 42 51 54 57 57 79 75 61 59 64 69 71 82 90 85 83 85 84 83 86 86 85 84 84 84 83 81 81 79 74 75 74 72 72 70 69 68 68 68 71 72
48 51 61 61 43 22 33 36 41 56 64 66 73 76 82 61 69 67 69 75 77 87 89 82 83 83 85 83 84 86 85 83 84 82 81 82 79 77 75 73 71 69 67 67 66 68 71 73 74
38 63 55 48 45 39 41 38 51 66 63 63 59 82 80 69 64 64 68 74 78 86 94 92 88 79 82 86 85 84 84 83 82 82 81 79 77 75 74 73 72 70 69 67 67 71 73 75 77
39 32 43 54 49 32 38 34 42 52 51 52 51 84 89 66 60 62 67 77 80 87 94 98 96 93 94 88 83 79 83 82 80 80 78 78 74 72 71 78 78 70 70 69 69 73 76 77 76
38 59 53 45 38 36 26 36 38 37 56 45 43 57 62 58 58 68 72 80 83 82 93 96 97 98 97 96 83 82 79 81 80 79 79 85 92 83 69 74 70 70 72 72 71 74 77 79 76
30 47 39 32 34 32 26 28 33 46 50 52 56 51 56 57 62 71 79 84 85 87 87 89 96 97 96 84 95 97 88 93 94 93 93 95 91 93 84 79 66 64 72 72 72 74 76 76 83
26 28 26 27 28 28 36 36 40 48 58 54 57 55 60 63 67 71 75 74 79 79 78 80 90 95 95 95 98 99 99 99 98 94 93 95 93 95 94 92 91 93 79 83 79 83 83 84 82
28 20 23 29 31 28 32 35 32 46 50 44 45 52 57 63 66 68 72 73 76 75 74 79 88 87 93 98 94 97 95 95 98 94 93 97 98 96 96 96 95 95 93 89 91 92 88 86 89
19 22 23 24 27 30 31 33 40 45 43 40 40 46 54 60 61 60 60 66 69 72 70 78 86 88 92 85 95 93 91 92 90 93 93 96 97 96 96 97 94 95 95 95 95 97 95 91 86
18 23 25 26 31 32 31 32 33 47 43 43 43 50 48 52 55 57 58 62 66 69 72 76 78 84 90 93 94 95 89 89 89 86 93 92 93 96 96 97 93 94 98 96 97 97 97 97 92
17 24 22 27 30 34 33 42 41 42 44 47 47 47 48 49 50 55 58 59 59 66 75 77 81 85 88 88 93 88 96 92 88 84 81 85 94 95 95 97 97 97 95 95 97 95 96 97 93
16 18 27 26 29 32 40 59 41 41 46 49 47 46 47 49 48 50 54 55 59 71 76 79 66 83 89 94 94 94 94 92 94 89 85 81 90 94 95 97 98 97 97 98 97 97 97 98 98
21 23 28 27 26 33 42 55 39 37 42 46 46 45 46 49 48 50 50 55 56 64 74 78 79 86 90 92 95 93 90 92 92 93 96 88 92 94 98 99 98 98 98 98 96 97 97 98 98
23 28 23 26 23 32 43 50 41 39 41 42 43 42 44 46 48 48 49 51 56 66 68 67 76 87 92 95 96 96 96 96 94 96 96 88 92 92 94 97 95 97 98 98 98 98 97 98 98
18 25 25 22 19 42 43 47 43 41 42 44 47 49 48 48 45 46 48 50 58 68 73 75 80 91 94 97 97 97 97 96 96 92 91 91 90 90 92 96 94 95 96 96 96 96 96 98 96
15 20 26 24 19 27 46 47 41 41 43 44 47 50 49 56 53 50 55 57 62 65 73 82 81 94 91 96 97 96 97 97 96 96 94 92 87 90 90 95 96 94 96 92 92 93 97 98 97
17 25 24 22 21 29 41 54 50 43 39 38 42 45 44 57 56 54 56 59 61 67 82 81 89 90 92 94 97 97 97 97 95 96 96 85 74 77 86 88 89 90 94 95 93 92 92 97 97
18 13 16 23 23 39 34 61 55 41 40 39 42 45 46 53 54 57 57 61 60 69 77 82 88 92 92 94 96 93 95 86 93 94 89 77 71 77 77 77 84 91 95 92 93 95 94 95 97
12 10 11 24 24 34 41 53 42 46 46 42 41 41 42 47 54 59 58 56 60 66 76 80 88 94 93 94 95 86 79 86 96 94 85 85 82 80 77 85 87 88 93 90 91 89 92 96 96
9 11 15 22 29 39 35 37 51 52 36 31 36 39 37 44 52 56 55 54 62 66 72 82 88 91 88 86 77 68 79 85 90 91 84 85 79 92 88 80 84 87 88 88 90 89 88 92 94
12 16 21 23 26 25 23 38 31 40 29 28 32 38 36 42 45 54 53 61 69 72 74 82 86 92 76 72 71 69 76 78 81 83 87 87 94 92 84 83 84 78 80 84 90 89 87 89 92
13 15 25 27 34 25 23 23 15 34 28 27 26 32 34 41 42 46 46 55 64 69 72 76 83 81 75 73 72 74 78 76 77 82 89 77 84 86 84 80 77 75 77 84 88 90 83 88 92
12 20 18 25 51 32 28 23 26 30 31 27 27 32 34 39 43 44 47 53 60 65 71 74 76 71 72 73 81 79 77 84 90 89 78 76 85 78 78 75 76 78 84 83 86 91 89 84 86
9 13 20 27 28 32 29 30 33 46 38 35 32 32 33 36 44 44 46 50 58 58 66 71 70 69 69 74 71 71 76 82 83 83 80 85 80 80 77 77 79 79 81 83 84 87 84 88 88
18 20 22 22 30 29 31 31 32 37 39 41 36 30 35 38 39 45 46 46 58 56 64 71 71 72 68 73 75 79 82 79 81 83 80 80 81 84 87 87 86 83 82 85 89 89 86 87 89
15 17 22 24 25 32 32 32 28 30 33 33 33 35 38 33 37 40 42 44 57 58 67 71 72 72 73 72 88 81 85 84 84 84 80 82 85 83 78 81 83 84 85 88 89 88 84 86 89

GFSSGP_sfc_rhum_003.txt.gz
RH
81 70 66 72 74 58 76 59 49 61 69 69 53 58 78 75 64 87 88 86 86 88 86 81 84 81 82 82 82 82 81 80 82 83 84 83 81 82 80 78 77 76 75 75 75 74 73 72 71
65 56 71 77 51 68 68 54 60 55 56 57 56 61 73 81 70 93 94 87 85 90 96 88 86 85 82 82 82 84 80 80 83 84 85 84 82 83 79 75 75 74 74 72 71 70 68 69 70
60 54 72 85 50 61 70 56 54 51 52 52 66 60 69 82 77 81 80 79 83 94 96 87 85 84 82 82 84 84 83 82 84 84 84 83 82 78 74 73 72 73 72 70 69 68 67 67 69
54 58 65 59 36 34 54 50 45 52 50 56 62 79 69 64 69 74 75 78 90 94 91 84 83 81 82 82 85 84 84 84 84 85 83 81 77 74 73 72 73 72 71 69 68 67 67 67 68
61 62 58 42 41 46 47 42 44 53 59 63 63 82 76 66 67 71 74 78 90 96 88 85 85 85 85 85 83 83 82 83 85 83 79 78 75 73 73 73 72 70 69 68 68 68 68 69 69
54 53 53 62 54 50 45 42 47 60 67 72 76 80 89 71 70 73 74 83 86 96 94 86 83 84 85 82 83 84 82 80 83 80 78 78 77 76 74 71 69 68 65 66 67 68 70 71 73
48 58 55 51 49 53 49 47 66 69 64 68 63 93 88 81 72 74 76 81 87 93 96 94 92 82 81 84 84 83 83 81 79 79 79 78 76 75 73 72 69 68 66 67 68 71 73 74 76
42 30 47 53 48 51 46 46 60 58 62 55 60 90 88 80 72 74 81 90 96 97 97 97 96 93 95 91 81 78 81 78 76 76 75 76 74 70 70 77 76 69 70 70 71 70 76 76 76
39 48 46 48 44 42 44 53 53 52 62 49 51 68 65 70 70 80 91 93 96 94 98 98 98 98 98 97 88 80 76 78 77 78 77 84 94 86 76 73 72 68 70 70 74 72 73 71 74
39 50 41 36 34 39 38 48 47 59 59 63 64 62 64 69 77 86 93 97 97 97 99 98 98 98 98 88 95 95 92 94 95 94 93 96 91 91 78 77 67 64 68 72 70 72 72 82 86
34 40 31 29 30 26 36 40 46 60 65 64 75 74 69 71 78 82 86 90 91 90 92 96 98 98 98 98 99 99 99 99 98 96 96 96 93 95 94 92 93 94 80 87 84 87 86 86 89
22 25 27 28 33 29 34 39 53 57 60 52 64 66 69 73 77 79 84 85 87 90 89 90 96 98 98 98 99 98 99 99 99 98 95 98 98 96 93 95 94 95 95 91 92 95 91 91 92
18 27 24 27 30 31 30 42 49 52 50 51 61 66 70 72 75 75 77 78 82 88 85 88 94 97 95 98 98 98 98 98 97 97 95 97 98 98 94 97 98 97 97 95 97 98 97 95 91
23 26 26 27 31 35 44 50 54 53 49 53 63 70 70 72 72 74 76 79 82 81 81 85 92 93 94 96 97 98 98 96 96 96 96 95 98 98 98 98 96 95 97 96 97 97 98 98 97
23 29 27 32 36 37 37 48 64 52 49 59 64 64 67 67 67 72 71 74 76 75 74 86 88 92 95 94 96 98 98 97 96 93 89 94 96 96 95 98 98 96 97 96 97 96 95 96 93
28 29 37 32 35 35 44 65 60 51 51 56 55 58 62 65 64 61 61 67 69 74 84 82 77 84 93 96 96 95 97 96 95 92 88 85 92 95 96 98 98 97 98 98 98 97 97 97 98
22 36 38 35 32 38 49 62 58 52 53 56 54 54 55 59 59 59 58 62 65 70 79 83 81 90 95 95 96 97 95 94 94 96 95 90 92 93 97 99 98 98 99 98 97 97 98 98 98
31 31 38 38 33 37 52 55 57 54 56 57 55 54 54 56 57 56 59 58 61 69 76 78 84 93 95 97 98 98 97 97 97 97 97 93 94 92 98 98 98 98 99 98 98 99 98 98 98
18 25 34 31 30 44 50 54 55 53 54 57 58 57 56 55 50 52 55 56 61 70 80 86 89 94 96 98 99 98 98 97 97 97 93 92 92 94 96 97 96 97 98 97 96 98 98 98 97
15 15 24 28 32 43 54 56 46 47 50 50 51 52 52 52 52 52 53 55 60 71 76 80 81 94 94 98 98 97 98 97 96 96 96 95 92 93 94 96 96 96 97 94 93 96 98 98 98
21 22 21 27 32 45 50 63 56 49 46 44 44 45 47 51 55 53 55 56 60 70 78 78 81 90 94 96 98 98 98 98 98 98 99 97 92 92 92 94 96 92 96 96 93 94 95 97 98
35 16 16 24 31 49 46 70 60 52 51 50 49 50 49 54 51 51 56 64 64 67 72 78 83 92 93 95 96 96 98 98 96 96 98 92 82 82 88 86 87 94 97 96 94 96 95 96 97
18 15 15 23 27 47 51 57 59 54 62 52 48 47 48 54 51 53 54 59 62 64 76 80 90 95 94 96 95 98 96 92 92 96 94 88 87 85 79 83 91 93 95 92 92 91 93 96 97
15 14 18 31 39 49 50 45 52 57 50 46 42 44 48 51 52 53 52 55 62 66 73 85 94 94 96 96 97 96 86 89 97 95 93 88 85 88 89 88 88 90 92 91 91 90 91 94 96
14 17 25 38 47 51 39 46 39 43 37 38 40 40 46 47 54 57 59 60 65 74 75 83 90 92 96 96 96 91 77 89 93 92 87 92 94 96 92 85 89 81 81 86 90 92 90 91 95
16 17 25 25 37 33 36 51 34 27 32 32 33 34 41 44 50 57 59 60 61 70 75 78 86 86 95 92 86 76 81 84 90 89 92 86 90 87 86 82 80 74 76 84 89 94 88 91 95
16 19 15 22 54 35 33 26 19 35 34 32 31 31 41 41 47 56 57 60 59 66 73 76 81 82 87 78 74 72 80 83 83 88 87 76 81 81 82 78 77 76 81 85 86 91 90 88 91
11 15 21 29 31 39 31 29 27 30 44 40 36 32 37 40 46 54 56 58 61 61 66 70 74 80 81 69 64 69 79 81 85 89 82 77 82 82 79 79 80 78 82 85 88 89 88 90 92
22 22 25 24 32 31 32 30 31 26 45 43 37 31 34 43 49 50 52 51 57 60 64 69 74 78 79 69 66 75 79 86 86 85 81 81 82 80 82 82 84 86 85 84 90 91 90 91 92
13 16 17 18 28 38 32 27 23 30 44 39 36 33 40 42 48 48 49 49 52 57 62 68 71 72 73 69 84 76 82 81 87 88 80 81 81 82 83 86 88 86 85 86 90 90 86 89 90

GFSSGP_sfc_rhum_006.txt.gz
RH
80 74 66 68 66 65 78 66 56 69 69 71 59 62 77 78 71 83 91 86 86 88 88 82 83 78 78 77 77 77 78 79 81 82 81 79 78 79 77 75 76 76 74 73 74 74 73 72 69
73 63 73 77 55 80 75 60 64 60 64 62 62 66 78 85 81 96 92 88 86 88 92 86 83 81 78 78 81 79 76 78 82 82 83 80 79 78 75 75 74 74 73 72 72 70 68 69 69
63 54 70 84 54 71 74 62 64 61 59 58 70 65 74 92 85 86 87 86 91 95 94 90 83 82 81 81 81 84 81 80 80 81 80 79 79 76 74 73 73 73 72 70 68 68 68 68 69
58 61 63 44 42 44 57 58 60 62 62 63 67 86 75 68 74 82 82 86 95 95 90 84 81 79 79 80 82 80 80 82 82 82 79 78 75 72 71 70 71 71 69 68 67 67 67 68 69
60 60 50 50 53 56 52 49 54 61 68 66 68 88 86 74 77 79 85 84 95 96 89 84 83 82 81 80 80 82 81 80 82 81 78 76 74 72 72 72 71 69 69 68 67 68 68 69 70
52 54 49 58 58 56 52 47 55 69 74 73 77 81 94 79 78 81 81 88 90 96 93 87 81 81 81 80 79 81 81 81 82 79 77 76 74 73 72 70 68 67 65 66 67 68 70 72 74
62 59 56 56 65 60 56 56 71 77 74 74 68 80 94 85 78 79 85 91 95 96 95 94 90 82 79 82 80 80 80 80 79 78 78 77 75 74 73 71 70 67 66 67 68 69 73 73 75
44 43 55 53 61 62 52 60 64 65 69 59 64 88 86 85 78 81 87 96 98 98 97 97 95 91 93 92 78 76 77 77 77 77 76 76 75 72 70 76 76 70 70 70 70 71 73 74 76
40 43 50 50 47 47 52 67 56 57 67 59 60 71 72 76 80 89 95 99 98 94 98 97 97 98 97 96 88 79 76 75 75 76 75 82 91 86 77 76 74 71 69 71 71 70 71 74 76
41 49 41 37 38 50 49 59 59 66 65 70 74 74 77 79 86 91 93 95 96 97 99 98 97 98 98 90 94 94 91 91 93 92 91 95 92 90 73 76 69 67 65 70 73 69 76 82 81
40 37 35 34 33 41 47 55 52 63 73 71 82 86 83 84 88 92 90 88 93 93 93 97 98 98 98 98 98 99 98 97 97 94 93 94 92 94 92 88 89 90 79 81 82 87 80 83 82
31 29 32 31 36 42 47 49 61 58 62 56 67 75 82 87 89 90 89 91 94 96 95 95 97 98 98 98 99 98 97 97 96 96 94 97 97 94 92 92 91 93 88 85 88 87 87 86 87
19 22 30 32 32 36 41 50 60 54 58 60 66 74 79 82 84 81 81 85 88 95 94 95 97 98 97 98 98 98 98 97 95 97 95 95 98 97 93 94 95 95 92 92 92 95 93 91 87
18 30 33 35 38 41 49 56 56 58 62 69 70 75 76 76 78 80 83 87 89 89 90 92 95 97 97 98 97 98 97 97 96 95 95 94 98 98 96 96 93 92 95 90 95 94 92 88 86
28 34 32 37 40 50 41 56 58 58 63 74 74 75 74 74 75 80 80 84 85 86 86 90 92 96 97 96 98 98 97 97 96 92 91 94 97 98 97 98 96 95 91 91 92 91 88 86 84
32 36 42 36 39 45 42 59 67 58 64 76 75 74 75 76 75 75 75 77 80 84 88 88 79 88 95 96 97 95 97 97 97 92 91 90 93 95 96 98 97 96 96 92 93 91 88 89 89
33 45 44 43 38 42 51 65 64 57 66 75 76 74 74 77 74 73 71 73 76 81 84 87 89 90 95 96 97 97 94 92 93 94 95 90 90 91 96 98 97 94 97 97 94 92 94 94 90
40 42 44 47 37 44 55 64 65 59 62 68 68 67 71 71 71 68 66 67 72 77 83 83 88 93 96 97 98 97 97 96 94 96 95 92 93 90 96 97 96 96 98 96 97 97 96 94 94
28 38 34 39 36 47 57 64 69 61 60 63 62 64 65 64 60 61 62 63 69 74 86 90 93 95 96 98 99 99 98 97 95 95 94 92 91 92 96 98 94 96 96 93 93 95 96 93 94
29 31 35 33 36 43 62 62 65 63 61 60 61 61 61 59 63 62 64 64 69 74 84 91 90 94 93 97 97 96 97 96 93 94 94 93 92 93 91 94 94 94 94 92 91 94 95 95 96
25 20 24 28 43 51 54 67 68 64 60 58 56 56 56 58 60 61 62 66 66 74 82 87 88 90 94 96 98 99 98 98 98 97 97 96 93 93 93 93 94 92 92 92 91 90 94 95 95
27 19 18 32 42 52 48 58 72 58 63 56 54 55 55 55 54 56 59 64 64 70 76 82 86 87 93 97 96 96 98 98 97 96 97 96 92 91 89 89 89 89 92 92 92 93 94 96 95
18 19 21 34 43 54 66 53 51 59 67 56 50 49 49 49 51 56 55 57 60 65 75 79 86 90 94 96 94 94 97 96 89 93 96 95 89 84 85 86 87 91 89 91 92 91 94 95 96
15 15 24 38 47 57 49 48 49 75 54 47 47 47 48 49 52 54 54 56 62 65 72 78 89 90 94 95 95 95 95 94 94 95 96 90 86 86 86 85 91 91 90 89 87 88 90 93 95
17 23 31 37 54 52 52 60 36 42 44 39 43 46 47 47 54 55 59 61 67 75 76 80 86 89 94 95 95 95 94 92 91 94 92 89 86 89 91 92 90 87 86 87 88 90 90 90 93
20 21 30 31 40 44 53 61 42 28 30 39 40 40 43 47 52 54 57 59 65 70 73 78 85 86 94 94 95 96 94 86 88 91 89 86 85 86 90 86 86 82 82 84 87 86 85 90 92
20 22 20 28 42 35 42 32 24 26 30 41 40 45 44 48 52 55 56 58 62 66 71 77 83 85 92 93 95 96 92 88 88 91 88 85 87 82 86 83 84 79 80 86 85 84 87 88 88
15 17 21 30 35 46 36 35 32 31 31 37 46 44 43 45 51 54 57 59 60 58 63 71 76 82 87 89 91 87 85 84 84 87 89 86 84 83 85 84 82 82 83 85 88 85 84 88 83
21 23 27 27 32 32 33 34 30 26 30 33 42 38 40 43 49 53 58 58 58 56 60 69 75 81 87 87 85 79 77 80 81 83 85 84 81 85 85 85 84 84 84 85 88 89 87 89 90
13 17 20 20 29 39 33 26 22 26 30 42 39 38 42 46 49 53 57 58 60 60 58 65 71 76 80 81 83 79 68 78 77 84 85 86 84 86 84 85 86 86 86 87 87 86 83 86 88

GFSSGP_sfc_rhum_009.txt.gz
RH
68 64 58 58 45 37 51 51 45 53 53 54 45 48 64 67 56 63 59 61 62 62 64 69 81 79 77 78 77 77 76 78 80 82 80 76 73 74 75 76 76 75 73 73 73 72 72 71 71
51 50 56 58 38 39 49 46 50 48 54 49 52 55 60 71 65 67 64 65 60 58 60 59 85 80 80 77 78 77 78 77 80 81 79 76 75 74 73 74 73 73 73 72 71 70 69 70 70
52 45 49 46 42 39 46 46 49 51 49 49 58 54 60 72 65 60 57 61 60 63 62 62 82 79 79 79 78 78 79 77 78 78 77 76 75 74 73 72 72 72 72 70 69 68 69 69 70
44 43 39 28 35 41 44 44 48 53 52 52 49 60 59 56 57 57 59 59 58 63 58 71 80 79 80 80 78 78 80 78 80 78 76 76 74 71 70 70 70 71 70 69 68 69 69 70 70
38 35 28 35 40 42 39 42 47 52 55 52 52 64 66 66 58 57 60 57 56 58 60 64 81 80 79 80 79 81 79 77 80 78 75 74 72 71 70 71 71 70 69 68 67 68 69 70 71
33 32 26 32 43 44 40 41 46 56 58 57 53 55 65 63 58 58 55 57 52 56 57 62 77 79 79 78 79 81 80 77 79 76 76 74 72 72 71 70 68 66 65 66 68 69 71 72 73
31 31 35 36 44 45 42 38 46 55 58 57 46 58 72 63 54 56 56 57 56 55 59 64 64 72 79 82 78 79 79 78 77 77 76 75 74 72 71 69 68 67 66 67 69 69 70 72 73
27 25 33 35 40 39 40 41 46 46 55 48 44 59 68 61 55 56 57 58 60 60 63 66 70 66 67 65 76 76 77 77 76 74 76 75 73 71 70 73 72 69 71 69 71 69 69 70 71
29 27 30 31 38 35 39 42 47 43 54 50 49 50 45 57 56 57 62 63 64 66 66 64 61 70 75 71 68 75 75 74 74 71 74 70 63 60 59 76 72 71 68 68 71 68 72 77 73
26 30 27 24 27 33 38 39 48 52 51 51 59 55 57 62 60 59 61 63 63 63 64 68 70 70 69 57 70 71 61 57 59 65 66 61 64 66 64 63 72 67 65 69 74 77 72 62 52
26 25 24 24 24 30 36 42 42 49 52 47 58 65 62 63 60 58 56 56 56 60 60 65 69 74 71 74 68 78 64 65 62 69 67 73 66 66 58 57 54 55 66 50 54 56 53 63 60
21 21 21 22 27 31 36 35 43 45 37 37 50 57 61 63 60 56 56 57 58 63 63 62 67 74 75 76 65 67 60 62 59 64 74 81 84 66 68 58 62 69 58 62 63 56 66 66 65
16 14 18 21 28 29 34 40 39 45 38 41 52 58 60 59 59 56 55 54 59 61 63 64 70 76 76 77 66 65 70 57 57 65 68 63 81 74 70 69 66 69 63 61 66 68 67 68 60
12 17 22 24 30 32 34 41 38 39 48 53 58 58 56 58 58 61 62 61 62 61 62 64 71 76 75 76 81 74 69 73 64 64 63 73 67 87 86 70 73 64 66 61 67 69 66 63 61
23 26 28 28 29 35 34 48 43 41 50 57 56 57 57 58 57 61 59 60 62 61 60 63 67 72 78 79 85 76 67 64 60 60 70 75 78 84 79 84 86 66 68 75 69 70 66 61 57
23 24 27 30 30 36 28 32 39 45 51 55 54 56 59 57 54 57 57 57 60 62 66 64 55 62 70 73 76 68 68 66 65 88 86 73 71 74 79 89 84 74 72 66 66 66 63 60 58
25 24 28 33 27 36 31 30 38 45 47 52 54 53 54 57 57 57 56 58 58 65 68 69 68 67 75 81 75 82 79 76 84 68 69 76 78 77 84 84 84 77 70 79 69 65 69 59 56
25 27 27 29 31 33 34 34 47 48 46 50 54 53 55 55 57 57 57 56 58 62 67 70 67 74 79 89 84 86 88 89 82 68 68 77 79 74 78 78 81 75 71 68 68 77 69 67 64
18 24 24 28 28 31 34 33 47 49 48 49 54 56 55 52 49 51 54 54 57 61 67 72 75 78 78 71 77 78 69 76 68 84 74 74 77 77 80 86 78 75 69 71 75 69 73 60 67
23 23 24 26 28 28 36 34 39 48 49 46 49 52 52 50 51 56 54 53 54 61 68 73 76 78 79 71 74 69 71 69 66 69 78 75 74 77 76 78 73 74 65 77 74 77 64 63 69
21 23 25 24 28 33 33 31 43 47 45 46 44 42 43 47 49 52 55 53 53 60 68 71 77 78 79 78 76 80 78 77 73 72 71 72 74 76 77 76 71 75 68 58 72 71 77 66 71
15 19 21 25 27 30 28 31 35 38 50 48 44 44 42 44 45 46 50 54 53 58 61 69 74 78 77 83 79 83 71 70 66 69 68 70 76 75 75 75 71 75 62 73 69 68 73 76 65
14 16 18 22 24 31 38 32 23 42 45 45 43 41 40 39 40 44 46 48 49 52 57 63 74 80 78 83 81 76 78 67 68 69 79 81 82 77 71 72 71 73 63 74 73 76 77 68 66
14 16 20 27 23 28 22 30 20 41 39 33 35 38 39 38 39 41 42 45 49 49 54 60 75 82 80 81 82 84 81 78 73 72 67 67 69 69 73 67 71 72 71 74 67 74 76 74 73
13 15 22 26 29 23 25 36 24 21 28 27 28 35 36 36 38 40 45 46 50 55 58 60 73 80 78 78 79 81 81 82 83 78 66 69 68 66 68 72 74 67 76 71 70 75 74 72 69
15 13 18 30 25 20 35 33 21 21 18 25 26 28 31 33 33 37 42 47 51 53 59 61 68 77 76 76 82 82 82 71 70 74 63 63 63 62 65 68 69 72 69 67 72 63 62 69 66
16 18 10 16 21 18 19 28 20 19 21 23 25 28 32 33 34 38 41 44 50 54 61 64 69 73 72 71 79 81 81 80 74 77 74 65 72 57 66 67 71 68 65 69 72 58 67 70 70
12 11 15 17 29 29 20 24 15 21 20 22 28 28 30 34 37 37 40 43 47 48 52 58 63 69 69 69 72 72 77 80 78 78 77 72 68 67 69 70 67 66 65 65 73 64 65 71 61
12 13 17 13 16 21 21 17 19 22 25 20 24 26 28 34 39 38 42 42 46 46 48 53 57 65 65 69 72 73 74 80 78 76 80 80 72 72 71 72 67 65 65 66 72 72 66 68 68
8 12 14 15 28 19 17 14 13 18 17 18 18 22 26 37 40 39 41 43 43 46 46 48 51 53 60 65 73 74 76 77 80 77 68 72 83 70 69 70 69 66 63 65 70 68 59 66 67

GFSSGP_sfc_rhum_012.txt.gz
RH
66 52 44 48 46 32 47 39 29 37 40 38 34 38 40 45 47 66 40 44 47 47 51 60 81 78 74 77 76 77 78 76 79 78 74 72 74 75 76 75 74 73 73 72 71 69 69 69 69
41 46 42 33 24 34 34 31 34 35 36 34 36 36 39 52 42 46 47 45 42 38 41 49 83 78 74 75 76 76 73 73 76 75 72 72 73 73 73 72 72 72 72 70 69 69 68 68 69
33 31 34 19 16 26 33 32 34 35 33 35 40 36 40 50 42 40 42 43 41 41 40 53 78 78 76 75 76 77 75 75 75 74 72 72 72 73 72 70 71 71 70 69 68 67 68 69 69
28 28 28 21 22 26 28 31 34 36 35 35 34 46 42 38 42 39 42 41 42 42 46 66 75 77 76 76 77 77 77 76 75 73 72 73 73 70 69 69 70 69 68 68 67 67 68 68 69
26 23 17 17 23 23 24 29 32 33 34 34 31 40 49 45 39 42 43 41 40 39 50 48 80 79 77 77 77 77 74 75 75 75 74 74 70 69 69 70 69 67 66 66 66 68 69 70 71
24 19 16 18 23 24 25 28 31 34 36 38 33 43 47 42 43 42 39 40 37 39 43 51 77 80 79 78 78 78 76 76 76 74 73 72 70 70 70 68 66 65 64 64 68 68 69 70 71
21 18 18 18 22 24 25 24 29 33 37 36 28 40 46 42 41 39 38 36 35 36 41 47 50 67 78 78 79 77 76 75 73 73 73 72 71 70 70 68 68 65 65 67 68 66 67 68 68
18 16 19 18 21 22 22 24 27 29 37 28 26 41 50 40 39 37 38 37 38 38 44 50 49 49 55 57 78 76 75 72 71 72 71 71 70 69 68 69 68 67 67 66 68 65 67 69 70
20 18 18 19 22 23 21 24 27 26 35 35 31 29 32 36 36 39 42 41 42 42 48 43 44 57 58 52 58 71 74 73 72 68 71 67 41 45 47 67 68 68 66 65 67 66 71 70 70
17 18 17 14 15 20 22 22 28 32 34 35 38 33 34 37 41 42 43 44 45 49 46 40 44 48 49 41 57 56 49 43 44 44 50 43 45 48 51 58 69 65 65 66 68 69 69 68 36
12 17 15 16 14 17 21 24 24 26 32 30 37 40 39 40 41 40 40 40 40 42 41 42 47 52 49 49 46 45 43 42 45 54 51 47 47 47 42 41 42 43 61 41 49 48 41 48 44
12 10 11 12 15 18 20 20 25 24 23 23 28 36 39 41 38 36 38 38 39 44 43 43 47 54 52 48 45 43 42 42 40 42 57 56 48 49 56 42 45 53 41 48 47 40 51 51 52
10 9 9 10 14 16 18 22 24 25 25 24 29 36 37 37 36 35 34 35 38 43 44 44 49 59 58 61 46 43 45 41 38 42 50 45 45 55 52 55 58 53 46 43 50 50 52 53 48
9 9 9 11 15 18 21 24 25 24 24 29 34 37 35 36 35 37 37 38 40 42 44 44 50 58 58 59 62 53 48 42 43 40 43 56 48 65 49 53 50 51 54 46 53 56 53 50 46
10 14 18 16 19 22 20 30 29 24 28 34 35 36 35 35 34 39 39 41 41 41 42 47 51 52 60 62 60 56 45 43 42 41 52 60 67 64 62 56 52 51 58 65 58 61 61 51 43
12 12 16 18 20 23 22 24 25 26 29 34 34 36 36 36 34 37 38 39 40 42 48 48 42 47 55 58 56 51 44 44 55 47 52 56 60 63 60 54 51 49 53 62 60 62 49 43 40
12 14 14 23 20 25 24 21 23 26 27 32 34 33 35 37 38 38 36 38 38 45 50 52 51 48 54 62 56 55 57 66 56 53 54 57 60 58 58 53 62 60 64 62 62 47 49 41 37
14 14 12 16 22 23 24 21 25 26 26 29 34 32 34 34 36 36 37 39 40 44 51 54 50 57 61 74 73 65 50 48 47 58 67 62 62 59 63 61 59 59 71 60 48 60 46 47 42
10 12 14 13 17 21 20 20 24 29 27 27 32 34 32 31 30 34 38 38 40 45 52 58 61 64 73 54 51 51 48 50 50 51 59 60 60 61 65 56 60 66 57 56 57 50 49 38 43
10 12 13 13 19 20 18 21 20 24 30 28 29 32 33 30 30 36 38 38 38 46 52 59 63 67 69 52 69 51 50 43 45 46 63 61 59 64 61 63 59 62 46 61 57 57 44 40 46
12 12 12 16 20 19 18 22 22 19 24 27 26 26 29 30 30 34 37 38 38 44 52 58 65 67 67 66 63 65 64 64 54 51 52 56 61 62 67 65 57 62 54 38 56 54 58 42 47
12 9 11 14 19 23 19 22 18 17 23 26 28 27 25 29 31 31 34 38 38 42 46 56 63 68 65 68 65 71 54 48 40 43 41 45 56 58 59 63 61 60 42 53 53 49 55 60 46
11 9 12 12 16 18 21 23 18 17 20 22 24 26 24 23 27 32 32 35 36 39 43 50 62 68 68 70 72 59 67 45 42 43 56 63 61 58 53 62 58 58 48 58 60 59 64 48 46
8 10 11 12 13 21 18 20 16 14 20 16 18 22 25 22 23 27 29 32 36 36 40 46 62 73 69 69 72 73 66 61 46 54 49 44 43 50 59 60 58 58 53 58 56 60 61 61 57
9 12 20 22 20 19 16 18 18 11 11 12 11 17 22 21 22 25 30 32 37 40 42 45 58 71 68 68 69 71 70 69 67 63 52 47 40 40 56 67 62 52 63 58 59 63 59 60 54
10 11 16 29 19 17 16 21 15 12 10 9 11 12 18 21 18 22 27 31 37 39 43 46 54 67 66 66 71 73 72 57 55 59 42 41 37 39 50 62 55 56 57 59 58 50 49 54 53
10 13 9 13 12 14 12 16 12 11 12 12 11 14 17 20 19 21 25 29 34 38 44 51 59 62 61 60 67 72 71 69 56 60 60 46 51 38 51 55 56 54 58 57 60 48 56 56 57
8 9 13 12 25 24 15 16 15 15 11 10 14 15 16 20 21 18 22 26 30 33 37 43 48 57 57 57 60 60 64 67 64 63 67 59 51 55 54 56 52 55 57 57 63 51 55 59 46
8 10 12 11 13 18 19 15 11 13 12 10 9 14 13 18 22 21 20 23 28 29 33 37 43 51 53 53 59 60 58 59 65 65 68 66 61 61 60 62 54 57 56 57 63 60 51 55 58
7 10 12 14 23 14 14 12 8 9 9 9 8 8 10 15 20 22 22 23 26 30 30 32 36 40 45 50 59 59 59 60 60 72 67 74 72 61 63 64 63 58 54 56 60 57 46 52 54

GFSSGP_sfc_rhum_015.txt.gz
RH
67 52 50 72 94 71 36 33 35 37 38 27 28 44 58 65 57 66 59 52 47 44 52 61 79 79 76 76 78 78 76 77 77 77 76 74 75 76 75 73 73 73 72 70 69 69 69 69 69
40 40 48 45 37 74 40 32 39 36 28 26 26 32 40 47 36 51 49 47 44 37 41 49 82 76 76 75 75 76 72 72 73 74 72 72 73 73 72 70 71 71 70 69 68 67 68 69 69
35 32 38 29 35 38 37 29 28 27 26 27 30 29 36 48 37 43 39 40 40 43 45 57 77 75 75 75 74 76 74 72 72 72 71 70 71 71 69 69 70 70 68 67 67 67 67 68 69
33 28 24 14 18 21 27 24 24 26 25 24 28 38 32 31 40 34 37 38 40 39 41 67 76 75 75 76 77 75 75 75 72 70 70 71 71 68 67 68 68 67 66 66 67 67 68 69 69
24 23 24 14 18 19 21 21 22 26 24 25 26 39 40 34 30 32 41 42 44 39 39 48 77 75 75 76 77 77 76 74 72 71 72 71 68 67 68 66 64 64 65 66 68 67 68 69 69
27 16 21 15 15 16 19 20 21 23 24 26 30 37 41 33 34 36 40 41 41 39 38 49 74 76 76 76 76 74 73 73 73 72 72 69 68 67 66 63 63 63 63 65 67 65 67 68 67
24 24 19 13 16 16 17 17 19 21 25 24 27 38 39 35 32 31 36 36 38 35 41 47 50 67 77 77 75 74 74 74 73 72 71 69 69 67 66 65 62 63 64 66 66 64 66 66 65
17 22 13 17 16 15 14 16 16 19 24 19 21 38 44 36 31 28 29 37 38 41 34 43 47 48 54 57 74 73 74 72 69 70 69 69 69 68 66 65 66 64 64 63 65 64 66 66 67
13 30 18 15 20 15 13 15 16 17 23 21 22 26 30 32 28 28 30 36 41 41 39 37 36 46 54 54 63 72 72 69 68 66 69 66 52 63 54 65 65 64 64 63 65 64 67 67 68
13 71 24 11 13 15 14 13 16 19 23 24 26 24 29 32 32 32 32 33 34 42 42 38 50 42 43 35 59 54 47 45 46 44 56 45 53 52 45 53 65 64 64 64 65 67 68 68 61
10 30 21 11 11 14 14 14 14 18 22 23 28 29 31 32 34 32 31 31 31 41 36 39 58 64 41 48 43 42 40 40 40 46 47 43 44 55 53 78 58 49 61 60 60 62 55 53 38
10 10 9 9 11 12 14 13 14 15 16 17 22 26 30 32 32 30 30 30 31 37 33 31 40 46 44 53 38 35 34 34 34 40 54 55 47 54 48 72 66 61 66 53 63 54 54 46 45
8 9 8 8 10 11 12 15 15 14 15 16 21 26 29 30 30 29 27 27 30 33 33 34 41 52 50 52 39 50 37 34 35 36 47 44 44 58 47 48 47 52 50 64 50 67 55 57 54
8 8 8 8 9 11 14 14 16 15 16 19 24 26 26 27 27 29 29 30 32 34 35 35 42 52 52 53 57 46 46 51 35 47 39 54 47 65 69 64 45 45 60 67 66 54 64 75 67
7 10 10 9 10 12 12 16 18 15 18 22 24 26 25 25 25 29 29 30 32 34 36 38 42 44 54 56 55 50 42 36 51 45 44 51 56 57 62 55 47 56 55 59 56 64 56 55 49
8 9 12 10 11 13 14 21 16 15 18 21 23 25 26 26 24 27 27 29 31 34 40 41 34 40 49 54 53 46 41 64 62 47 66 50 59 60 61 51 50 60 55 58 67 53 83 43 34
10 11 11 12 11 14 16 52 16 16 17 19 22 23 25 26 26 28 27 29 30 36 41 44 43 41 48 58 50 50 58 56 48 48 42 71 56 58 60 53 50 56 53 64 57 63 50 39 36
13 12 10 16 12 14 16 23 16 18 17 18 20 21 24 24 26 27 28 29 30 35 41 46 44 51 54 64 64 61 45 46 42 41 49 55 54 56 57 48 57 58 67 58 81 58 45 46 40
9 10 10 10 10 14 16 16 17 19 18 18 20 21 22 23 24 25 28 28 30 35 43 50 55 64 55 55 67 59 50 55 40 39 50 59 62 63 66 60 78 58 58 71 54 48 48 39 40
9 10 10 10 11 13 15 16 15 19 20 19 20 20 21 21 21 26 28 28 31 37 45 56 60 67 64 56 59 62 55 38 39 40 50 52 53 60 64 67 51 60 47 57 55 56 45 36 44
9 10 10 10 14 13 14 19 16 14 18 19 18 18 19 20 19 24 28 30 31 38 45 55 65 67 66 67 58 60 65 50 45 40 47 52 55 54 61 62 62 61 55 38 56 52 54 43 41
10 8 8 9 17 20 12 18 18 14 15 18 19 18 19 19 19 21 26 31 30 36 41 53 62 68 65 72 60 74 55 48 37 39 36 42 49 49 57 57 54 58 46 58 52 46 56 56 45
9 7 9 9 12 20 13 15 15 13 15 15 16 18 18 18 19 20 23 28 29 32 36 46 63 70 69 71 70 57 65 39 36 35 54 59 61 51 46 53 56 59 45 55 58 54 62 50 47
6 8 9 9 10 17 16 16 17 17 14 13 12 15 18 18 17 21 22 25 29 29 34 42 64 74 73 70 72 74 70 60 43 47 46 42 40 47 54 51 58 57 55 54 53 58 58 61 57
7 8 14 16 15 15 12 14 21 12 11 11 10 12 15 18 18 19 24 24 30 34 38 42 61 74 72 68 67 70 70 69 65 58 47 48 37 38 60 61 62 52 60 55 56 63 59 58 55
7 8 12 24 16 14 12 16 12 10 9 8 8 8 10 15 16 17 20 25 30 33 40 44 56 70 71 67 72 73 73 52 51 56 43 39 35 38 60 59 57 55 56 56 59 51 49 56 52
6 8 6 10 11 13 12 11 10 10 10 9 9 8 8 14 16 17 18 21 28 32 41 46 55 64 66 59 70 74 72 70 53 60 62 43 51 35 46 56 57 55 55 57 62 49 57 56 56
5 4 8 10 23 23 13 14 13 14 13 11 10 9 9 12 16 16 17 20 24 27 33 41 47 59 59 58 62 63 67 70 67 63 65 59 52 53 55 56 55 55 56 58 63 56 56 58 49
6 6 7 8 11 16 17 14 10 14 13 12 10 8 8 10 15 16 16 18 22 24 28 34 41 51 55 55 58 61 60 61 67 64 63 64 65 61 56 62 56 55 58 56 62 61 55 57 62
6 6 6 11 21 13 13 11 8 8 9 9 9 8 8 9 13 15 15 17 20 23 24 28 33 36 45 49 58 60 61 61 60 67 64 68 69 61 63 65 64 60 66 64 65 58 53 54 54

GFSSGP_sfc_rhum_021.txt.gz
RH
80 74 66 78 94 94 84 70 59 52 58 54 50 51 60 65 61 83 76 74 79 76 79 75 80 78 79 81 84 83 82 84 84 84 83 82 78 78 78 76 74 76 73 70 70 71 70 70 70
69 64 82 90 95 93 80 54 56 54 51 53 51 47 57 74 58 76 87 73 68 72 73 76 82 80 79 82 83 82 78 79 82 83 83 81 78 78 75 73 73 72 71 69 69 69 69 70 70
58 52 94 95 85 84 68 54 50 52 47 47 50 42 54 75 64 71 65 60 63 68 72 76 81 82 79 80 82 81 80 77 79 80 81 80 78 74 72 71 70 70 70 69 69 68 69 70 70
58 86 96 91 64 50 46 42 37 49 42 43 45 55 52 50 56 58 54 52 58 70 77 80 80 76 79 79 80 77 78 78 79 80 80 78 76 72 70 69 68 68 68 69 69 69 69 69 69
70 84 92 74 52 35 33 35 35 42 42 44 46 61 61 52 50 53 50 50 63 72 77 77 82 81 81 79 78 79 76 76 79 80 79 77 75 71 69 67 66 66 66 68 67 67 68 67 68
90 90 82 61 35 25 30 37 44 46 48 48 50 61 63 50 51 47 46 51 60 71 74 74 79 81 82 78 77 79 76 76 79 79 78 77 76 75 71 66 65 63 64 66 67 66 67 66 66
76 74 63 51 27 26 34 33 36 40 48 49 48 66 58 54 47 43 45 47 56 60 71 77 78 76 79 82 79 77 78 78 79 79 77 76 74 70 69 70 65 64 64 64 65 64 67 69 69
83 68 67 49 39 27 32 27 29 34 43 39 48 71 71 52 45 44 43 46 51 63 69 76 82 82 88 82 76 75 77 76 75 75 72 72 69 68 66 74 72 64 63 63 64 67 72 73 74
55 72 67 41 36 19 21 29 25 27 39 42 37 51 53 46 46 50 52 51 58 61 68 72 76 83 88 85 76 77 75 74 74 74 74 78 82 79 71 76 75 64 66 65 67 73 75 74 76
59 65 35 26 30 21 21 29 30 28 39 45 43 44 47 47 52 55 56 57 69 65 66 67 71 77 78 66 85 89 80 84 83 81 82 86 86 88 74 73 72 65 67 69 72 73 73 72 79
35 40 28 27 21 20 17 18 20 25 45 41 44 50 48 47 52 53 52 59 57 58 58 60 67 70 70 69 83 86 83 82 78 77 81 80 87 91 90 91 92 90 76 78 75 72 78 81 73
28 21 18 16 21 19 18 17 22 23 32 32 34 34 47 48 49 50 51 53 54 56 55 56 64 66 70 76 77 75 73 73 76 78 80 80 97 87 88 96 92 82 82 81 86 85 77 73 67
18 18 16 14 17 21 16 18 21 24 31 32 33 34 42 49 46 44 44 48 47 56 53 58 61 68 78 72 69 66 66 64 67 71 75 74 82 80 91 83 88 89 80 73 75 81 80 77 74
14 13 10 14 17 20 20 18 20 25 31 35 36 38 37 36 39 43 42 45 47 51 53 59 65 75 70 73 78 71 69 64 67 76 70 72 84 86 89 80 75 72 74 77 86 80 82 84 80
11 14 10 11 12 19 24 37 20 23 28 36 38 38 37 37 36 39 43 46 44 48 50 60 62 72 69 74 78 74 67 61 60 75 75 73 80 77 83 88 79 88 75 75 84 77 83 77 71
12 13 16 11 11 15 32 51 24 20 29 35 35 36 37 38 36 38 40 44 42 48 54 61 53 64 78 74 82 72 70 75 71 74 79 79 81 83 82 88 87 78 78 78 89 87 90 79 82
14 17 15 12 11 14 26 40 19 18 27 30 34 34 35 37 36 39 36 40 43 52 59 58 56 62 70 79 84 76 71 78 68 79 78 72 80 80 82 88 88 83 92 92 92 85 87 77 68
18 16 13 13 14 24 30 32 23 23 26 28 31 31 33 35 36 36 34 40 42 57 57 55 64 64 65 81 83 87 84 82 73 80 76 76 83 85 87 88 90 88 88 93 88 83 74 73 74
12 12 13 11 14 34 33 29 27 23 30 31 30 31 32 33 32 35 34 36 45 56 57 61 70 71 69 78 79 90 84 84 78 75 80 83 84 81 88 84 87 88 90 89 78 82 71 74 76
11 12 13 11 14 29 39 35 31 26 23 29 26 29 30 31 31 35 34 35 42 56 56 62 68 84 70 73 84 83 83 82 81 81 80 74 82 86 82 89 90 86 90 81 75 74 84 83 74
11 13 13 14 16 22 38 45 46 25 25 25 22 24 27 29 30 35 34 36 40 53 64 63 67 82 81 78 84 91 91 88 80 74 81 80 82 85 84 88 90 91 83 82 76 78 80 82 80
14 10 10 11 15 28 29 45 46 28 26 27 23 22 24 26 28 33 34 37 37 52 61 65 70 79 77 83 78 86 85 90 80 74 83 76 85 85 85 86 88 84 86 84 82 76 80 85 81
10 10 11 11 14 25 22 28 39 33 32 28 23 22 20 22 25 31 35 34 37 48 56 67 68 70 73 80 74 81 84 71 77 80 82 92 84 81 78 86 87 83 83 88 80 78 79 88 92
6 9 11 12 14 23 24 24 37 32 29 25 22 22 20 20 22 29 31 34 36 46 54 68 74 74 79 73 84 84 86 81 82 87 93 83 87 84 87 83 85 81 76 85 81 83 81 83 89
6 11 16 20 21 25 22 26 36 24 21 23 22 21 21 21 21 23 32 36 38 48 57 68 73 77 76 80 77 82 82 76 83 87 77 88 87 84 90 92 86 83 83 83 85 81 81 81 85
7 7 13 27 24 21 19 26 25 18 17 19 19 19 18 19 21 23 30 33 38 43 55 66 74 75 79 78 81 80 87 71 80 84 82 72 72 73 84 86 79 79 79 86 90 86 86 84 84
10 8 7 14 17 24 18 17 13 19 16 18 20 16 18 18 22 24 26 31 38 42 55 58 76 75 76 79 81 80 80 83 87 82 85 74 67 72 77 83 77 77 81 81 89 87 75 84 82
7 9 10 8 15 20 16 20 21 21 21 24 24 23 19 19 21 24 25 30 37 39 48 55 72 74 76 72 78 81 79 77 84 85 82 78 72 80 74 83 77 81 78 84 91 86 86 88 78
10 9 10 10 10 16 23 17 16 22 23 24 20 17 18 17 19 24 26 28 36 38 44 54 67 73 76 76 73 76 81 81 78 88 81 76 79 85 79 79 80 75 83 86 91 86 83 90 81
8 10 11 13 22 21 14 14 12 11 20 18 17 16 19 21 20 22 25 28 38 39 40 51 68 72 73 74 76 74 77 81 80 74 85 85 72 84 77 78 81 76 70 86 84 81 78 83 87

GFSSGP_sfc_rhum_024.txt.gz
RH
76 73 77 84 98 92 88 74 65 58 62 57 47 59 74 74 66 87 84 81 80 81 84 81 80 78 80 84 85 84 83 82 84 84 80 77 77 77 76 75 74 73 71 71 71 72 71 71 71
74 73 82 89 95 93 80 59 64 58 54 51 48 54 68 76 70 88 92 77 76 82 84 81 84 81 81 83 84 83 79 78 83 82 80 77 77 76 74 73 72 71 71 70 70 70 70 70 70
64 64 91 96 90 87 76 52 58 53 48 48 53 52 64 85 76 82 78 75 76 79 83 78 81 82 81 81 82 82 80 77 79 78 76 75 75 74 72 71 71 71 71 71 70 69 68 69 70
68 91 94 98 79 58 57 60 53 54 48 45 53 71 62 60 68 67 71 71 76 78 81 78 79 77 79 79 80 77 77 76 78 78 75 74 74 71 70 70 70 70 71 70 69 69 68 68 70
76 86 94 91 66 43 52 54 54 53 50 58 55 72 71 60 60 68 68 67 77 82 80 77 80 80 79 79 77 77 75 75 78 78 74 73 72 69 68 68 68 68 69 69 66 67 67 68 70
94 88 88 73 51 40 52 51 45 50 52 61 66 70 77 60 65 63 60 71 76 83 83 79 78 80 80 76 76 76 74 75 78 77 74 73 73 70 68 66 66 65 66 67 67 66 68 68 69
72 77 67 61 48 46 50 43 50 52 56 59 54 76 75 66 60 54 63 70 75 79 83 84 79 73 76 79 76 76 74 75 76 76 76 74 72 70 66 65 65 65 65 65 66 65 67 68 69
76 67 69 55 43 49 46 45 47 50 53 47 50 76 82 62 52 54 64 70 74 80 82 90 90 87 88 86 77 76 75 75 76 75 74 73 71 69 67 74 73 66 64 63 65 66 69 70 70
61 66 62 49 40 41 38 46 42 40 52 48 49 56 56 51 48 55 67 69 76 76 86 89 92 96 96 90 79 78 75 75 75 76 74 81 85 83 74 75 73 72 65 64 65 69 72 71 71
62 73 50 33 30 34 31 41 42 51 56 54 56 52 50 50 53 57 64 72 82 83 84 86 89 92 92 74 87 91 84 88 89 88 88 90 90 92 82 77 73 68 67 67 69 70 71 73 89
57 57 38 29 25 28 34 40 39 54 61 56 64 59 54 53 54 59 61 70 74 77 78 80 84 87 87 80 95 98 94 94 91 86 88 89 91 94 93 94 93 93 77 87 77 81 77 81 81
46 36 28 27 23 26 32 38 45 44 44 44 54 54 54 58 58 58 61 67 69 73 74 76 78 82 82 80 88 88 90 90 89 90 85 90 97 88 92 97 94 91 87 81 89 88 80 75 72
26 22 26 22 21 22 21 25 40 38 38 42 50 53 57 57 56 54 55 58 62 69 69 72 75 79 77 82 82 92 85 83 81 79 83 86 91 87 93 86 92 93 81 84 81 84 78 83 80
16 16 16 16 20 20 21 23 32 38 37 46 52 56 56 56 54 54 56 58 58 61 62 67 72 75 76 80 87 79 75 75 74 69 80 75 92 91 93 87 81 89 79 84 86 83 86 87 80
16 17 14 12 16 23 25 34 42 39 37 43 54 53 52 54 52 52 53 54 55 56 58 64 69 74 76 74 75 69 63 65 72 69 80 79 84 85 89 92 83 90 86 88 89 81 85 77 77
16 19 20 14 24 26 25 40 42 39 40 42 45 53 54 52 50 47 47 49 50 57 59 62 56 68 74 75 75 80 76 68 76 81 84 82 85 81 88 91 89 84 85 81 91 91 90 80 70
21 22 18 15 18 26 33 49 29 39 42 45 42 41 45 44 47 46 44 46 48 54 58 64 58 66 75 81 80 77 74 81 78 83 85 81 84 86 85 91 92 90 94 94 92 89 88 77 72
23 20 17 16 17 28 36 39 28 41 44 46 45 42 41 41 42 44 44 44 46 52 61 62 60 67 76 77 90 86 81 85 85 84 84 86 86 88 89 90 92 93 93 95 91 84 83 80 81
17 17 17 14 14 33 32 32 28 40 42 45 46 45 44 41 37 40 47 45 49 53 62 64 64 68 72 90 92 96 90 89 90 85 78 81 90 87 88 91 93 94 93 92 85 82 75 73 85
13 15 16 14 13 34 35 28 24 32 36 39 41 42 42 41 39 39 44 45 53 62 63 64 66 68 67 70 74 84 90 88 85 85 86 80 83 88 87 91 93 93 95 92 81 76 86 86 86
12 13 13 15 14 39 36 42 41 30 28 30 35 35 36 38 38 39 38 46 46 62 64 64 70 68 68 71 88 95 94 93 90 88 90 82 81 88 85 89 94 94 93 88 78 82 78 82 87
20 11 10 12 19 32 32 47 46 36 33 30 31 33 35 35 34 37 37 41 46 54 60 61 71 73 70 76 77 80 79 84 89 83 87 89 85 88 88 90 92 87 92 82 79 85 90 81 79
15 12 14 14 17 23 21 44 42 38 36 32 30 30 31 32 32 36 37 36 42 49 56 58 71 81 76 74 71 73 81 79 88 87 88 92 95 90 85 90 92 87 90 85 84 84 90 90 90
10 11 14 18 18 28 21 30 42 39 34 28 26 26 28 29 30 32 34 34 39 46 54 59 66 78 80 75 74 73 75 84 85 92 94 98 88 88 89 91 93 86 86 90 86 81 86 90 92
11 14 18 21 21 25 21 36 30 29 28 23 24 26 24 27 29 31 36 36 39 47 55 61 67 69 77 79 75 75 79 82 82 88 94 97 92 96 96 95 92 84 81 86 85 89 80 83 88
14 10 15 24 29 27 21 34 25 22 24 24 20 23 22 23 25 28 32 36 37 44 56 63 68 67 73 76 80 77 78 76 78 88 90 85 77 76 92 88 83 83 83 86 89 87 87 85 87
14 12 9 16 39 27 25 22 19 21 21 24 24 23 23 22 22 24 30 35 37 45 56 64 69 65 73 72 72 77 85 78 75 91 84 82 78 75 86 86 82 82 82 91 94 91 88 91 90
12 11 17 16 16 17 20 24 20 21 25 25 24 23 23 22 21 21 25 31 37 39 53 60 66 66 71 73 72 73 76 78 81 89 87 78 75 77 85 85 81 79 80 90 95 92 86 88 90
15 13 15 11 12 14 24 14 15 17 22 27 26 22 22 24 23 23 23 30 34 37 51 61 67 65 72 73 72 74 78 76 79 85 84 81 72 75 82 84 81 79 81 84 93 92 89 86 90
12 13 13 13 18 16 10 11 12 13 15 25 25 21 20 22 23 25 24 27 33 39 49 58 69 66 68 73 75 77 78 80 77 77 87 81 76 77 76 81 82 80 78 80 84 85 79 90 91

GFSSGP_sfc_rhum_027.txt.gz
RH
78 76 82 87 95 95 87 73 72 61 65 60 53 63 81 82 75 90 80 79 78 84 90 81 80 78 79 80 83 82 80 80 80 79 77 77 76 76 76 74 74 72 71 71 72 72 72 72 71
75 75 85 90 94 97 88 61 68 65 58 55 55 62 71 87 80 94 93 81 76 84 94 86 82 81 79 80 82 81 78 79 78 78 78 77 76 75 74 73 72 71 71 70 70 71 71 72 72
72 62 90 95 97 94 76 64 62 56 51 51 61 58 69 87 81 86 81 78 79 85 88 82 80 80 78 78 79 81 79 77 77 77 77 76 75 74 72 71 72 71 71 71 71 70 71 71 70
65 87 94 92 86 61 57 62 58 57 51 54 60 75 71 65 74 77 76 77 83 85 87 78 78 77 77 77 77 77 77 77 77 75 76 75 73 71 70 70 71 71 71 70 70 70 70 71 70
77 88 93 89 72 51 54 52 56 59 61 59 58 79 87 69 72 72 76 76 85 94 85 80 80 79 78 76 75 74 74 77 78 76 75 74 71 69 69 69 69 68 70 70 68 70 69 70 69
92 88 90 79 57 50 53 50 51 59 62 65 70 77 87 74 77 76 73 78 78 86 86 81 77 77 77 75 75 75 74 77 78 75 74 74 72 69 68 67 67 66 68 68 68 69 70 67 66
82 90 71 61 54 56 57 52 56 64 60 62 57 86 88 82 74 72 73 79 78 83 88 88 78 74 75 76 75 74 74 76 76 76 74 73 72 70 68 67 66 66 65 66 67 66 67 67 67
79 73 74 64 61 61 51 51 50 56 59 51 55 87 95 78 68 67 75 82 83 90 89 95 90 82 87 83 75 74 74 75 76 75 74 74 71 68 66 74 71 66 65 64 65 71 68 67 70
66 73 72 60 52 50 50 57 47 47 58 50 52 61 60 65 61 74 83 86 89 89 96 96 96 96 96 94 81 76 74 74 74 76 74 79 87 86 80 76 72 71 66 65 65 67 67 69 71
74 77 52 36 37 49 48 52 50 57 57 61 60 57 60 63 67 81 87 90 94 92 95 94 97 97 97 82 90 93 86 88 92 91 91 93 91 92 82 79 72 66 66 67 69 73 68 75 90
60 65 44 34 29 40 47 49 46 58 64 65 68 67 63 62 70 77 79 80 88 86 88 92 94 97 95 87 98 99 98 98 97 94 94 94 92 95 95 95 94 93 82 87 79 82 79 84 82
64 49 44 34 27 30 44 43 52 52 51 51 54 58 60 62 67 72 74 78 78 84 84 88 91 95 96 96 97 97 96 98 98 95 90 94 97 95 95 97 94 91 91 86 86 90 79 79 72
57 44 32 34 31 26 36 45 49 52 44 49 52 56 59 61 61 61 64 70 74 83 80 85 87 92 91 95 97 98 98 97 93 87 86 92 96 93 94 94 95 94 85 87 82 86 81 84 84
20 26 22 21 23 25 42 44 47 49 46 54 57 60 58 58 58 61 64 72 74 76 78 80 84 86 87 88 94 94 95 92 88 85 84 81 93 95 95 96 90 92 84 87 86 87 85 90 83
18 22 20 18 18 29 32 45 49 42 50 60 60 60 59 58 57 61 62 68 69 70 73 78 80 82 86 86 91 88 82 80 81 73 83 88 87 91 91 97 91 91 92 91 92 88 80 74 71
18 21 23 18 27 24 27 42 42 43 53 63 61 60 61 60 57 57 57 60 62 66 71 72 68 77 82 83 87 79 78 71 68 83 83 86 88 85 95 95 90 90 92 94 92 93 90 78 69
23 26 22 17 25 30 29 48 48 44 54 61 62 61 60 62 59 54 53 57 58 61 66 71 71 77 80 80 82 84 84 77 72 87 90 86 86 86 90 93 94 92 95 93 94 92 89 76 72
26 23 20 19 19 33 41 48 49 47 51 60 60 60 60 61 60 54 51 52 54 59 63 67 68 72 77 80 82 92 86 87 82 86 91 87 86 90 91 91 95 96 96 96 93 88 90 82 84
20 20 20 18 18 34 35 39 52 48 46 50 59 60 60 59 54 52 50 49 52 59 64 67 68 70 74 90 90 96 89 93 95 90 84 87 91 89 92 92 95 96 95 94 90 86 77 78 89
18 19 17 18 18 34 37 36 36 48 48 47 48 51 55 56 52 48 50 48 51 58 62 69 68 69 72 72 73 84 90 90 88 90 86 84 89 91 90 92 95 96 96 94 92 80 88 89 91
20 19 17 17 20 36 40 47 40 48 48 46 46 43 43 45 44 48 49 49 50 56 63 68 68 68 69 71 80 97 96 96 96 95 92 86 83 87 90 91 95 96 97 96 85 80 83 82 90
26 16 14 15 19 23 37 57 49 47 52 49 48 47 45 44 41 41 50 53 51 54 58 65 66 67 68 74 76 73 76 80 95 91 89 91 86 84 88 89 94 96 98 92 82 82 85 82 85
19 15 16 17 20 26 26 45 43 41 50 44 42 43 42 42 41 41 43 49 49 52 59 64 67 66 67 71 67 72 72 71 92 93 88 93 96 93 90 91 94 95 98 88 82 88 93 84 84
16 19 16 22 24 29 18 25 22 46 37 34 32 35 38 38 38 39 38 41 48 50 59 64 71 70 68 74 71 73 72 86 89 95 95 97 98 98 93 91 95 91 93 87 86 87 90 94 93
18 20 28 26 27 24 18 30 18 28 30 27 27 29 32 34 35 36 38 39 44 52 60 65 71 75 73 76 74 76 72 77 79 85 86 97 99 98 96 96 97 94 90 88 88 87 87 92 91
20 19 31 29 30 21 24 30 23 18 24 26 23 23 25 30 32 34 35 37 40 48 57 62 70 73 78 78 77 75 72 73 72 82 85 84 94 90 88 91 94 89 86 89 89 92 89 89 92
19 19 15 20 50 26 27 23 21 20 24 27 29 24 26 27 30 31 32 34 37 42 53 60 66 67 77 78 76 77 75 74 77 88 82 87 92 86 93 91 92 88 81 88 91 91 91 91 91
13 13 21 22 24 24 21 23 21 26 20 28 32 29 26 26 27 28 29 31 35 37 46 54 60 62 68 74 73 74 76 75 77 84 89 89 91 87 89 92 90 88 83 88 93 92 92 95 96
22 17 18 16 19 19 23 16 12 18 23 26 30 29 27 27 26 25 27 28 32 35 43 52 58 60 62 68 70 71 75 76 79 79 86 83 89 87 87 89 88 87 83 89 91 94 93 92 94
14 16 19 21 20 18 13 15 15 14 15 21 22 28 26 25 25 23 23 26 32 36 42 52 57 60 59 64 66 69 70 76 81 80 88 84 82 83 82 86 87 84 82 80 89 90 85 92 92

GFSSGP_sfc_rhum_030.txt.gz
RH
77 76 84 97 98 94 91 79 72 67 69 64 56 63 74 83 78 90 86 83 81 82 85 82 81 78 79 82 83 81 79 78 79 79 77 76 76 75 74 74 73 72 71 73 72 72 72 71 68
75 79 90 90 92 94 86 73 74 69 65 61 61 68 77 90 81 91 94 82 80 85 94 89 82 81 79 81 81 81 76 77 78 77 77 76 75 74 73 72 72 72 72 71 71 72 72 72 68
76 71 92 92 95 87 82 70 69 61 56 56 67 64 74 90 80 85 85 80 84 91 92 87 80 81 78 77 78 81 77 77 77 76 76 76 74 73 71 71 72 72 73 72 71 71 72 70 68
75 90 96 91 84 68 67 67 59 60 57 59 65 82 77 71 78 82 77 80 89 91 92 80 78 76 77 77 78 78 76 76 76 76 76 75 72 71 71 71 71 72 72 70 70 70 71 70 68
77 87 89 87 76 57 55 56 58 64 64 64 64 88 91 76 76 77 80 80 91 95 90 82 80 79 78 76 77 76 76 76 76 76 75 73 70 69 69 68 69 70 71 70 70 69 68 68 67
89 84 85 88 68 58 59 55 57 64 68 69 72 78 95 79 80 81 78 84 85 89 90 83 78 78 76 75 75 75 76 77 76 74 74 72 70 69 68 67 67 68 68 69 68 69 68 66 65
85 84 72 74 65 63 62 55 65 67 66 68 64 89 92 85 80 78 80 82 85 85 91 90 81 77 74 75 74 74 75 77 76 75 74 73 70 67 67 66 67 66 66 67 67 66 67 66 65
79 72 70 65 68 65 60 57 60 61 66 54 62 92 94 86 77 76 81 85 90 93 90 94 89 84 87 82 74 73 74 76 76 75 73 74 70 66 66 74 72 68 65 64 66 65 67 67 67
66 78 77 70 60 55 57 61 53 52 62 56 57 69 66 76 75 85 91 91 96 94 98 96 92 93 94 91 81 75 73 74 74 74 73 78 86 84 77 78 74 70 68 64 65 65 67 68 69
79 81 61 44 41 53 53 56 56 62 61 65 64 65 70 75 80 89 84 86 96 94 98 96 96 95 96 83 91 90 85 85 88 88 89 90 90 90 81 78 74 66 66 68 68 68 71 74 83
71 77 53 38 44 46 55 56 52 60 66 67 75 76 76 77 83 88 82 83 90 89 90 95 96 96 96 92 96 96 94 94 93 92 92 91 91 93 91 94 91 90 78 85 80 82 80 81 76
75 57 50 43 33 49 55 51 56 51 56 50 62 67 74 77 84 86 88 88 88 91 90 93 95 98 98 96 96 96 96 96 95 94 91 92 95 94 92 96 91 89 84 84 85 84 82 78 75
69 45 37 34 39 36 45 51 52 58 47 54 58 68 74 74 79 78 78 79 82 88 89 93 94 97 96 97 98 98 97 96 94 92 89 90 95 92 91 91 90 92 87 84 84 88 84 81 78
35 45 38 34 28 36 45 50 51 52 51 56 62 69 70 71 73 75 76 78 80 81 85 88 92 94 96 95 97 97 97 95 93 90 86 87 94 96 92 94 92 95 87 88 87 85 82 82 80
19 22 21 23 24 28 37 56 55 49 54 61 63 65 67 66 66 72 70 75 76 77 79 86 89 90 96 94 95 96 94 89 91 87 87 89 92 94 93 95 90 94 88 91 92 84 82 73 66
20 25 26 20 22 21 42 52 49 51 59 65 63 62 64 65 63 63 64 68 72 76 82 84 75 85 91 92 94 92 90 88 86 86 83 88 90 91 94 95 90 86 95 95 90 88 86 76 70
28 30 26 20 19 34 40 46 43 52 60 67 66 64 63 65 63 62 62 66 69 74 81 84 82 83 88 91 93 91 88 86 82 80 86 90 91 91 89 91 92 89 94 92 91 88 84 74 74
29 27 25 21 23 37 41 45 49 55 60 64 66 65 65 65 64 60 60 62 66 71 77 80 80 84 87 88 93 93 91 89 87 85 88 90 88 88 91 90 94 93 92 94 90 85 83 78 80
24 24 24 20 19 35 35 46 62 56 57 62 66 67 66 65 60 58 58 58 63 68 75 78 83 86 86 91 93 93 87 90 90 88 86 90 90 89 92 89 93 94 93 91 85 83 77 74 82
21 24 23 19 16 34 36 35 58 58 58 57 63 64 64 62 62 62 59 56 60 68 72 78 80 83 84 82 82 85 84 90 87 87 87 88 89 91 90 92 92 92 94 90 88 82 80 80 83
27 24 23 22 19 32 43 45 53 57 56 52 56 57 58 60 62 63 62 58 58 66 71 75 78 80 81 82 84 96 95 94 92 91 89 87 87 88 90 90 93 94 92 88 88 83 81 79 84
32 20 17 16 20 24 36 44 53 52 59 53 51 56 57 57 57 59 58 60 56 61 66 72 76 78 79 82 82 84 80 83 81 88 87 86 86 88 91 91 91 93 93 93 89 81 81 83 81
24 16 17 17 20 25 29 40 43 50 67 59 53 50 48 48 50 54 52 53 54 55 61 67 76 78 78 81 79 80 80 78 88 91 90 93 93 90 86 91 91 92 92 93 89 87 89 81 81
18 19 21 28 28 31 23 31 32 62 47 54 50 49 48 45 44 46 45 49 51 53 59 66 76 79 78 80 80 82 81 85 88 94 88 92 93 94 93 90 90 91 92 92 87 87 89 88 85
20 26 37 35 32 29 24 28 19 32 39 41 44 44 44 44 44 44 46 49 54 59 62 66 76 80 77 79 80 80 81 83 86 87 84 93 94 96 95 93 93 90 90 90 88 89 88 90 86
24 25 40 38 36 29 27 27 23 16 31 31 31 33 34 38 40 42 43 45 51 57 62 68 74 78 77 79 80 80 80 75 76 82 80 82 85 85 91 90 90 90 88 88 88 84 82 88 87
25 24 20 26 51 28 28 25 20 21 22 32 30 28 30 30 35 39 40 42 44 51 58 68 74 76 76 75 79 80 80 79 79 83 82 80 87 85 90 91 91 90 88 88 89 83 85 86 87
17 18 25 30 36 36 30 28 26 31 23 25 37 32 28 27 30 33 36 38 40 42 50 59 67 73 72 75 76 75 77 80 79 83 84 84 86 88 91 92 91 91 88 88 90 87 87 89 85
22 20 25 22 29 30 33 24 22 21 26 19 21 31 29 30 28 28 32 34 36 38 47 54 62 68 70 77 77 76 77 78 79 83 83 85 86 89 89 92 92 91 89 88 89 90 87 88 90
15 18 20 23 27 26 28 20 18 15 20 24 23 27 35 34 32 29 30 32 35 38 42 52 58 61 65 73 78 77 78 79 79 84 83 85 89 89 88 90 91 90 88 88 87 87 83 86 88

GFSSGP_sfc_rhum_033.txt.gz
RH
71 66 70 80 93 82 78 68 53 54 55 50 44 53 57 73 67 79 84 91 74 78 67 66 81 78 78 81 84 83 81 79 80 79 76 75 76 75 74 73 72 71 72 73 71 72 71 68 68
72 69 80 83 88 73 63 56 57 51 55 48 50 55 61 75 69 86 92 76 66 56 58 64 83 81 80 82 83 81 76 77 78 77 76 75 75 74 72 72 72 73 72 71 72 71 70 68 67
67 64 77 76 64 64 55 54 54 52 47 48 60 55 63 76 70 70 71 60 54 56 58 69 80 82 80 80 80 80 78 76 77 76 76 75 74 72 71 72 73 74 73 71 71 71 70 68 66
70 74 80 75 58 51 50 51 49 52 51 51 53 71 69 60 65 61 60 54 52 55 58 72 79 77 78 78 78 76 76 76 76 76 75 73 72 70 71 72 73 74 70 69 69 70 70 67 66
60 66 71 62 53 46 46 45 48 54 55 54 53 72 83 70 61 59 58 54 54 53 59 58 81 80 78 78 77 76 75 76 76 76 74 72 70 69 70 70 70 72 70 69 68 67 69 67 66
78 61 54 46 46 46 46 43 47 53 56 57 60 64 77 67 62 61 56 55 51 53 53 56 75 78 78 76 76 76 76 75 76 75 73 71 70 70 69 68 69 69 68 66 68 68 67 66 69
58 49 46 46 45 47 50 43 48 52 53 55 52 68 86 70 59 58 56 56 54 53 56 56 55 67 74 75 75 76 76 76 75 74 74 72 70 69 67 68 68 66 65 65 64 66 67 66 69
57 43 47 43 45 46 47 44 46 46 54 45 47 67 85 69 60 58 57 58 57 57 56 62 56 55 61 60 73 73 75 75 75 74 73 71 69 66 66 70 70 67 63 63 64 64 66 66 67
49 43 46 41 44 39 44 49 45 43 50 46 49 52 50 61 59 60 63 62 61 61 58 57 55 64 69 66 64 70 73 74 74 71 72 69 59 60 60 71 74 69 64 63 64 64 66 67 68
50 53 43 33 33 29 42 44 47 50 48 48 56 52 57 62 63 63 64 64 62 63 60 57 59 62 64 58 68 67 60 53 58 58 67 59 63 65 64 68 76 68 64 63 64 65 68 63 47
60 51 43 30 30 34 40 43 41 48 51 44 59 63 62 62 62 61 59 57 58 58 58 60 64 69 65 64 62 61 58 58 60 70 68 66 65 65 57 59 56 57 62 49 53 54 51 63 60
61 50 43 35 32 39 42 39 47 45 38 34 47 53 60 62 60 57 56 56 58 62 61 60 63 71 68 62 62 60 60 60 57 59 73 70 60 64 66 60 61 63 53 73 70 62 65 57 61
64 46 36 34 30 27 38 40 40 44 35 37 47 54 58 58 58 54 53 54 59 62 61 61 66 74 73 76 63 62 64 58 55 61 64 60 61 67 65 64 59 62 71 67 77 81 68 61 53
33 40 31 19 21 23 30 31 40 37 36 48 52 54 54 56 55 58 59 60 61 61 61 61 68 72 73 74 77 71 67 61 62 56 58 68 63 73 64 64 62 69 66 63 81 68 76 65 62
17 17 14 13 15 17 20 30 43 36 43 51 52 53 53 54 54 59 58 60 59 58 60 64 68 68 75 76 75 71 65 60 57 55 66 68 69 71 76 66 61 70 65 74 70 74 67 61 56
15 16 17 13 14 15 19 19 27 36 44 50 51 53 56 55 54 55 54 56 57 58 66 66 58 64 71 72 72 67 64 60 56 55 57 66 68 73 73 66 60 60 69 85 72 80 55 51 53
15 15 18 16 13 18 22 19 25 35 42 48 51 52 53 56 55 55 53 55 56 61 66 68 67 66 71 76 71 70 70 63 56 55 55 66 75 71 69 62 60 70 64 81 65 62 60 51 47
16 17 15 16 14 21 21 25 30 38 41 46 50 48 52 52 52 52 51 52 54 60 66 68 66 71 76 71 75 66 62 59 55 54 65 66 66 69 71 62 69 69 63 66 64 69 60 53 53
13 13 15 15 13 22 21 22 27 40 41 45 49 49 49 49 45 46 49 50 53 58 65 71 75 79 74 70 67 64 59 59 60 61 69 71 69 74 76 62 69 71 71 68 72 63 66 51 57
14 14 15 15 13 15 16 22 25 39 43 42 48 48 47 45 46 49 49 50 53 60 66 73 77 80 78 68 70 61 62 55 58 61 68 68 69 74 72 72 68 71 67 77 75 72 58 55 57
17 13 13 14 13 15 19 18 26 35 38 40 43 41 45 44 46 50 51 50 51 59 67 72 78 80 78 75 69 70 67 67 65 64 62 65 68 71 75 74 71 74 71 63 74 70 70 51 61
17 13 12 14 16 18 17 20 28 26 42 42 41 44 42 44 44 46 49 52 50 56 61 70 75 79 76 80 73 80 63 60 56 59 60 60 68 68 70 74 74 77 65 72 70 67 66 62 55
16 14 14 13 15 16 16 20 19 33 38 41 39 40 41 40 42 46 48 49 49 50 56 63 75 80 78 81 78 72 73 58 54 57 72 77 71 70 67 74 76 77 69 75 76 76 75 57 51
15 16 16 17 15 22 18 18 18 20 26 29 35 36 40 40 39 42 45 48 49 48 51 58 75 81 80 80 80 82 79 72 62 68 63 59 57 59 72 71 76 76 73 76 74 77 75 68 62
16 16 20 22 21 20 15 19 20 16 18 16 26 34 36 38 40 41 46 48 52 54 56 59 72 80 78 78 78 78 79 79 78 74 64 65 58 58 70 78 80 72 78 75 75 80 74 72 64
18 14 15 24 16 14 20 20 16 13 12 17 17 22 30 35 34 37 40 45 50 52 57 59 67 77 76 76 80 80 79 64 64 68 58 57 55 58 68 74 73 75 75 74 77 69 65 68 66
17 19 11 13 18 16 13 14 14 14 13 16 19 20 26 30 33 35 38 40 45 49 55 61 67 72 73 71 76 79 77 76 67 72 73 59 68 55 66 70 74 74 75 75 78 64 73 70 70
14 13 18 16 23 22 16 19 14 20 16 17 19 18 22 24 28 31 35 37 40 42 48 55 60 68 69 70 70 70 72 75 72 73 76 71 66 69 66 71 71 73 76 76 80 70 73 74 63
15 17 14 13 15 15 14 12 16 19 23 18 15 16 18 22 25 25 30 34 37 38 43 49 56 63 66 68 69 70 69 69 72 71 73 74 72 73 73 74 73 73 76 77 80 76 70 74 72
12 15 15 17 27 17 14 11 11 14 13 18 15 16 17 20 25 25 24 28 32 38 39 45 50 53 59 63 70 70 70 70 70 72 72 74 76 73 75 73 74 74 74 76 79 77 68 73 73

GFSSGP_sfc_rhum_036.txt.gz
RH
62 52 58 74 86 53 54 54 37 40 43 36 36 42 51 57 61 89 77 89 61 75 72 64 80 78 79 81 83 82 79 77 78 77 76 75 74 74 73 71 70 72 71 70 71 71 67 67 68
48 54 77 53 63 50 47 39 43 38 39 37 38 41 46 60 53 80 85 69 68 70 61 57 82 81 80 80 82 81 76 76 76 76 76 75 74 73 71 71 72 71 70 71 71 70 67 66 65
49 51 65 50 43 46 38 38 39 40 37 38 45 39 44 72 68 66 74 60 60 52 47 59 81 81 79 78 79 79 76 76 76 75 75 74 73 71 71 72 69 71 70 70 70 72 68 65 64
52 58 55 74 37 35 34 37 37 39 38 38 39 55 53 50 60 57 59 56 48 46 44 68 79 78 78 77 76 76 76 75 76 75 73 72 71 70 70 73 71 70 68 69 69 69 67 64 64
40 40 53 45 32 31 31 33 34 38 40 40 39 64 82 60 50 49 50 43 42 40 41 52 80 79 79 77 75 75 75 75 75 74 72 71 69 69 69 70 71 69 68 68 66 66 66 66 65
67 39 35 31 29 32 32 32 34 36 40 43 44 56 81 53 57 53 45 41 38 38 35 47 75 78 78 76 75 74 74 75 75 73 72 71 70 69 68 68 68 67 66 65 66 65 65 66 67
48 32 30 27 29 31 34 31 32 34 37 39 37 52 61 58 52 48 41 39 40 32 34 41 45 63 76 76 74 74 74 74 74 73 71 70 69 68 67 68 66 64 64 63 64 65 66 66 68
46 29 31 27 27 34 32 32 32 31 37 33 35 53 67 54 46 40 42 42 41 33 33 40 43 45 52 54 74 74 75 74 73 72 71 69 68 66 66 68 67 64 62 62 62 64 65 66 68
36 32 26 26 27 27 30 34 32 30 36 34 36 36 42 44 41 42 48 48 45 36 35 35 36 45 51 50 57 70 74 73 73 68 69 67 48 45 48 65 69 62 61 60 61 61 63 65 70
38 30 25 22 21 22 27 29 34 32 34 35 40 34 41 42 44 45 52 55 46 40 36 34 37 41 45 38 54 53 46 42 43 45 52 45 49 50 51 58 68 61 61 62 62 64 62 65 44
32 28 25 21 21 24 25 29 28 31 33 32 41 44 44 44 46 43 44 44 40 39 36 36 41 47 45 45 44 43 40 40 45 55 53 50 48 50 40 43 44 44 59 49 50 45 42 44 40
38 29 27 21 22 23 29 25 29 29 26 26 34 39 44 46 44 40 40 39 39 42 40 38 42 51 48 42 42 39 37 38 38 41 58 57 48 48 50 40 43 48 46 47 46 43 45 43 44
36 27 24 21 21 20 21 26 26 29 26 24 33 39 42 42 41 38 37 37 39 42 42 42 47 58 56 56 42 39 41 38 35 41 49 45 45 52 47 48 42 45 48 43 45 45 43 45 40
23 26 22 16 15 14 18 21 22 24 26 30 35 39 38 39 38 39 38 39 41 42 43 42 48 56 57 57 59 50 45 39 39 37 41 55 48 56 57 47 42 43 42 47 49 47 47 50 42
21 19 14 14 12 12 13 16 18 19 27 33 35 37 37 37 36 40 38 39 40 41 43 45 49 51 59 61 59 54 42 39 38 37 49 55 57 60 65 49 45 44 51 54 49 62 60 42 40
17 12 14 12 11 10 12 17 15 18 27 34 34 37 38 37 35 38 37 38 39 42 48 48 42 46 55 57 56 48 42 41 38 37 41 53 56 62 64 50 43 48 52 46 48 53 45 40 40
12 15 16 14 10 12 13 16 16 16 25 30 34 35 35 38 37 38 36 38 37 43 48 52 50 48 53 60 54 53 53 47 38 37 40 51 57 59 59 46 44 58 56 47 48 47 45 41 36
16 14 13 16 12 11 14 16 13 18 24 28 33 34 36 35 36 36 36 36 37 42 47 54 50 56 60 56 61 49 44 44 39 39 40 50 53 56 60 47 54 52 46 47 46 58 47 40 37
12 12 13 12 11 12 13 14 13 19 23 26 32 34 35 35 33 34 36 36 38 42 50 56 60 64 60 56 54 50 45 43 40 40 49 56 57 60 66 50 59 62 55 55 56 49 58 40 40
12 12 12 12 10 12 13 14 13 18 24 26 29 30 32 32 32 36 37 36 37 44 51 60 63 67 66 55 56 45 44 37 38 41 50 57 58 62 62 66 53 58 55 64 62 63 44 42 39
13 13 12 13 12 10 12 14 14 14 20 22 24 26 28 31 32 35 37 37 37 43 50 58 67 69 68 64 55 55 47 46 42 44 47 54 57 59 65 65 63 60 64 48 63 61 61 42 41
13 10 10 10 12 15 11 17 16 13 17 19 20 26 25 31 30 32 34 36 36 42 46 56 64 69 67 71 60 71 50 46 40 45 44 45 58 56 57 62 64 70 51 58 59 55 57 61 43
11 7 10 11 11 13 13 15 15 13 15 16 17 21 25 26 28 31 32 34 34 38 42 50 63 72 71 72 68 58 63 42 39 39 58 66 61 59 52 60 64 66 62 62 66 66 71 52 41
8 10 10 11 10 15 14 14 14 13 17 14 15 18 23 25 26 29 31 31 33 34 39 46 64 75 73 71 72 73 71 61 45 51 46 46 46 47 59 56 65 67 63 64 63 69 69 65 54
10 12 14 14 13 14 11 13 15 11 11 12 12 15 20 26 26 28 32 34 34 37 41 45 60 73 70 68 68 71 72 71 68 61 52 54 42 40 54 63 66 60 69 63 66 72 66 68 60
13 11 10 20 11 10 11 15 13 10 10 10 11 10 15 22 24 25 30 34 37 38 43 47 57 71 70 68 74 75 75 55 54 59 47 46 41 42 50 56 60 64 62 65 68 60 58 61 62
14 14 7 7 9 10 8 10 9 10 10 10 10 10 11 19 23 26 26 29 36 40 45 50 57 66 65 61 70 75 73 70 56 63 62 47 56 41 50 54 63 61 61 66 70 56 64 60 65
10 10 11 9 19 18 9 12 11 12 12 11 11 10 11 14 20 21 24 26 30 33 38 46 52 61 62 59 61 62 65 70 67 64 66 62 54 58 52 57 59 61 62 66 72 61 64 67 56
11 12 11 8 9 12 12 8 8 11 12 12 11 11 10 13 16 18 20 22 25 28 34 39 46 54 56 57 60 62 60 61 65 63 65 66 61 62 61 62 61 60 61 65 72 68 60 68 68
9 11 11 12 20 12 10 8 6 7 8 10 10 10 10 12 13 14 16 18 22 27 29 32 37 42 46 52 62 62 61 62 59 66 64 67 68 63 66 64 64 62 59 63 70 70 58 66 67

GFSSGP_sfc_rhum_042.txt.gz
RH
68 56 58 81 99 86 76 64 66 56 44 32 32 40 48 49 56 90 70 72 58 55 61 66 82 81 80 82 83 81 80 80 80 79 78 76 74 74 74 74 73 72 72 72 69 69 69 68 68
45 47 67 83 98 91 76 41 53 44 33 34 35 38 45 66 66 79 74 65 53 47 52 63 84 82 81 81 82 80 78 77 79 79 77 76 72 73 73 71 71 74 72 70 69 67 66 66 66
48 50 89 92 89 85 79 44 41 33 32 39 46 42 45 66 60 64 60 55 48 43 48 71 81 81 80 82 81 80 78 77 77 75 75 72 72 72 71 71 70 71 70 70 68 67 66 64 64
55 70 76 86 64 54 42 37 32 32 34 39 41 56 51 47 55 47 58 54 40 53 50 76 80 81 80 81 80 78 77 76 76 74 72 72 72 72 71 70 70 70 69 68 67 66 65 64 64
62 64 93 95 58 36 26 25 27 31 38 39 42 61 69 48 44 44 54 41 47 50 55 64 82 81 81 79 78 78 76 74 75 73 71 71 70 70 71 70 68 68 68 68 67 67 66 66 66
81 91 90 78 54 23 23 24 31 35 39 40 50 60 75 53 46 51 37 36 46 46 48 63 78 80 79 76 77 77 75 74 73 72 71 70 70 69 70 69 68 66 66 66 66 66 67 67 69
62 94 86 70 60 26 23 21 25 26 34 41 42 64 68 57 48 41 42 47 44 44 47 59 63 71 76 78 75 75 74 73 73 71 70 70 69 68 68 68 67 66 65 65 65 66 66 66 68
42 45 70 83 43 30 21 20 20 27 34 33 39 64 83 58 43 47 48 43 45 41 46 55 59 58 64 66 73 73 73 72 71 71 70 69 68 67 66 73 70 65 64 64 64 64 65 67 68
28 70 58 35 33 41 18 23 24 23 31 29 35 51 52 48 41 48 48 48 43 53 41 43 45 58 67 66 66 72 72 71 70 68 69 75 77 64 69 69 70 63 60 62 61 62 65 68 71
35 92 74 38 35 35 22 18 22 25 26 38 43 52 49 48 49 53 46 51 45 45 36 37 44 49 55 44 73 70 60 58 63 69 70 87 83 76 56 62 70 61 60 59 67 70 66 68 57
27 50 63 48 35 21 24 18 18 23 28 39 50 52 50 48 51 50 45 41 45 38 32 35 47 56 51 59 60 56 54 54 80 92 94 87 84 73 68 70 76 88 77 65 70 73 75 74 65
26 40 33 33 26 30 47 35 30 20 25 32 40 42 46 50 49 45 46 41 38 37 34 34 45 56 53 55 49 48 46 59 63 67 81 85 92 88 95 93 92 95 84 84 73 72 70 64 58
21 37 33 41 29 36 56 32 37 24 22 28 35 39 42 44 45 46 43 38 38 36 32 36 49 63 65 67 52 52 56 44 49 58 65 73 88 86 85 88 85 76 82 73 70 70 66 60 60
19 18 19 27 15 26 28 33 26 27 19 27 34 37 36 36 42 44 43 42 40 34 34 39 50 61 62 65 69 63 58 52 54 52 60 65 82 84 75 75 73 75 86 85 71 70 73 68 60
16 21 18 24 14 14 13 31 28 51 20 26 31 35 32 30 36 39 38 40 36 34 36 44 51 52 64 67 66 65 57 44 49 55 68 61 68 73 78 83 78 77 84 78 70 71 74 73 58
18 20 26 18 16 14 12 20 26 28 23 28 29 32 33 31 27 31 32 31 32 34 44 46 34 49 59 65 68 63 54 53 55 53 62 64 66 68 80 94 93 83 74 76 76 76 79 72 68
19 24 25 20 15 15 13 16 13 20 20 28 29 30 31 33 30 31 26 30 31 38 48 50 48 53 61 69 64 64 64 59 56 54 58 71 69 69 75 94 98 94 79 74 70 70 73 72 60
24 22 20 22 14 13 14 14 14 13 23 26 28 29 30 31 30 30 28 28 31 40 50 52 50 63 69 65 72 61 57 58 56 58 57 72 68 68 80 93 94 87 84 79 73 75 64 66 58
18 16 16 15 14 14 14 14 15 15 18 26 30 30 30 30 29 30 30 29 32 40 51 57 62 70 66 65 66 64 59 61 61 60 60 72 69 71 78 85 79 75 82 79 80 72 69 70 58
18 16 12 13 12 15 13 14 12 16 16 24 28 28 29 28 28 32 32 30 31 42 53 62 65 72 69 65 69 64 67 56 56 60 65 63 66 71 74 80 83 81 80 76 70 76 82 68 65
19 18 14 13 14 16 14 17 14 13 15 18 22 22 26 28 28 31 34 32 33 44 53 63 68 73 72 70 69 72 68 69 62 59 59 63 66 72 78 77 84 85 90 89 77 73 72 72 63
19 16 14 13 13 18 12 19 18 12 15 19 19 23 24 26 28 30 33 34 34 41 49 62 68 72 72 74 69 75 64 61 57 61 60 62 67 67 71 76 77 82 85 82 86 75 78 75 72
12 10 14 13 13 14 13 16 15 13 14 18 18 22 20 24 25 30 30 34 32 37 46 56 70 74 75 74 77 68 70 58 56 59 67 75 76 71 64 76 76 83 87 87 82 82 80 80 78
7 10 10 11 12 17 14 14 16 13 15 12 15 18 19 20 24 29 30 33 34 35 44 53 72 77 77 77 76 80 74 70 58 60 60 62 66 67 73 72 79 83 82 82 79 81 84 84 82
7 8 13 15 15 18 12 13 16 11 12 11 15 14 18 19 22 27 34 33 36 38 45 52 70 78 77 76 77 77 78 75 76 76 58 61 58 62 72 76 81 78 82 83 81 85 84 84 83
8 8 11 23 16 13 12 15 14 10 9 8 11 12 13 16 18 23 32 34 37 37 44 50 66 77 77 75 79 79 79 68 63 68 56 56 55 55 70 72 74 76 79 78 82 80 77 82 82
9 10 6 9 8 10 9 10 8 9 10 9 8 10 12 14 17 22 29 32 36 37 44 49 62 73 75 74 77 80 78 77 68 69 69 62 66 54 67 71 73 74 76 78 81 75 81 80 82
8 7 9 9 19 19 10 14 12 13 12 11 11 9 12 14 16 21 25 29 33 33 37 44 53 67 71 71 73 73 76 75 72 70 74 68 68 67 69 73 72 74 76 77 81 78 79 82 79
8 9 9 8 9 14 15 10 9 14 13 12 10 10 10 13 16 18 23 26 31 32 34 39 46 61 67 70 73 73 73 74 73 69 71 73 69 74 70 76 74 75 75 76 82 79 76 80 82
8 9 10 14 21 11 13 9 6 8 10 10 10 11 10 13 17 18 20 23 28 32 33 36 40 45 59 67 72 72 72 73 73 74 69 72 75 70 73 73 74 74 74 76 78 79 68 76 80

GFSSGP_sfc_rhum_045.txt.gz
RH
76 70 72 84 99 98 85 79 64 60 76 54 38 46 60 67 68 89 85 80 70 80 81 79 83 82 81 82 82 81 79 77 78 79 79 75 74 76 75 74 73 74 72 71 71 70 70 71 70
66 63 83 94 100 98 84 57 72 54 40 40 44 46 56 84 79 90 89 67 66 71 78 82 85 82 79 82 82 80 76 77 78 80 79 76 77 76 73 73 75 73 72 70 69 69 68 68 69
57 52 94 97 95 96 82 52 44 39 39 46 51 50 56 84 76 75 67 60 60 66 78 80 84 84 81 80 80 82 78 76 76 78 75 75 77 73 72 71 72 72 71 70 69 68 67 66 66
72 83 91 99 91 69 65 49 37 42 43 42 53 68 62 60 67 69 60 58 56 73 79 82 81 80 80 80 79 77 76 75 77 77 74 75 74 72 71 71 71 70 70 69 69 68 67 66 65
73 81 92 89 82 68 51 40 38 47 45 52 54 76 78 61 63 60 58 53 62 79 83 80 83 81 81 80 77 78 76 75 77 76 73 73 73 72 71 70 70 70 70 69 69 68 68 68 66
92 87 91 93 70 47 43 34 38 41 52 59 66 74 76 63 63 59 52 56 63 75 79 79 80 82 81 76 76 78 75 75 76 75 72 72 72 72 75 70 68 68 68 67 68 68 69 70 68
79 90 93 90 76 51 35 34 40 46 51 60 56 79 73 68 60 58 50 52 55 64 76 82 79 74 76 79 76 76 75 75 75 73 72 72 71 70 70 71 70 67 66 66 67 68 69 70 70
69 85 90 85 81 68 29 29 37 46 51 44 52 74 79 66 45 43 51 53 54 67 74 79 82 83 87 83 75 75 75 75 74 72 71 70 67 66 68 76 75 67 65 65 65 66 69 71 69
46 93 88 72 44 42 47 38 35 34 46 48 45 60 59 47 42 55 60 62 61 66 70 72 74 82 85 85 75 76 74 74 74 74 72 80 88 79 72 76 71 65 64 64 65 70 74 72 70
51 87 73 49 45 42 32 35 40 46 59 63 62 57 50 50 56 62 62 64 66 65 64 64 67 73 76 63 85 88 79 83 82 86 80 89 93 91 76 72 72 66 68 70 71 68 69 67 72
39 70 54 50 44 34 36 36 29 50 70 65 71 61 53 56 58 58 58 59 59 54 54 56 62 67 69 72 87 88 84 81 84 89 93 85 94 92 94 84 89 76 70 82 74 78 74 75 76
43 37 38 33 35 41 35 43 34 45 57 56 57 57 52 56 60 57 54 54 55 48 48 51 59 62 69 71 75 73 72 78 84 95 83 88 96 85 95 94 93 92 95 92 85 87 78 79 68
32 34 33 29 34 46 33 32 39 44 50 54 52 54 55 57 55 50 47 48 46 50 42 49 56 63 67 67 67 69 68 68 73 89 89 97 96 95 91 93 97 96 93 95 85 79 73 63 58
27 28 32 36 39 35 32 32 32 44 44 54 55 57 55 56 53 49 50 47 47 43 40 51 55 66 60 63 75 64 63 58 61 66 80 90 95 95 94 94 94 92 94 82 82 75 70 70 71
25 27 33 39 38 39 36 37 31 42 44 50 54 55 53 53 51 52 49 50 44 43 45 52 55 67 67 69 69 67 71 51 68 64 74 78 84 93 94 93 87 85 92 73 77 76 82 71 68
27 26 29 27 27 31 35 48 36 33 46 52 50 52 52 51 52 48 47 46 45 40 53 54 45 64 75 71 74 73 70 68 57 65 74 71 76 80 90 95 93 95 96 90 81 82 73 71 73
29 36 31 28 21 26 32 38 39 33 39 47 48 46 46 49 49 49 45 44 42 40 55 55 53 61 76 76 80 73 73 74 68 65 73 73 72 79 88 93 92 80 93 80 80 76 80 80 70
36 36 27 30 24 23 24 24 41 38 34 41 43 42 40 49 50 47 44 42 40 45 51 50 59 61 69 80 83 78 76 78 73 69 77 79 80 79 95 93 88 88 91 84 79 72 69 70 60
26 29 27 22 20 22 23 20 37 36 39 60 67 40 40 38 35 40 39 35 38 48 56 51 66 69 66 82 78 87 78 80 75 69 79 81 80 80 94 95 90 95 87 79 81 72 74 72 68
23 29 26 20 17 19 20 20 20 32 51 58 57 73 40 38 36 36 34 35 40 52 53 62 68 73 68 70 68 82 81 78 72 69 80 79 79 82 85 92 92 89 90 88 86 79 83 75 73
22 27 27 25 15 13 19 22 19 29 45 50 66 68 36 37 37 38 35 36 42 55 56 63 66 77 71 74 75 81 82 81 81 75 71 80 76 78 84 86 90 87 92 91 84 76 81 65 75
26 20 21 22 20 34 22 38 28 21 38 51 61 55 39 35 35 37 36 38 41 53 57 59 68 78 72 76 72 69 65 66 83 71 73 78 79 80 81 86 88 88 93 87 88 80 79 74 67
22 18 20 21 24 24 24 30 25 21 23 42 53 55 44 34 35 37 37 36 36 47 58 62 66 74 72 72 67 74 76 83 75 78 71 83 81 79 82 84 87 87 95 90 88 88 85 80 82
16 18 17 21 24 30 23 26 25 23 23 39 43 42 40 34 34 33 35 35 37 48 56 65 69 72 73 74 83 72 82 77 81 75 77 86 83 80 83 82 87 91 93 90 89 86 83 89 87
17 22 26 26 27 31 22 24 23 17 17 19 27 36 35 34 36 34 37 37 39 49 54 66 72 72 73 74 69 88 75 82 75 77 64 81 89 78 83 91 88 88 90 91 88 92 89 88 90
20 19 21 32 30 26 20 22 18 14 14 12 18 27 33 37 38 33 35 37 38 43 54 63 71 72 70 78 74 66 89 72 66 82 81 68 74 71 70 82 80 81 86 90 92 92 95 92 90
16 17 12 18 24 24 22 17 13 11 12 12 13 22 29 36 33 33 34 36 38 42 53 58 71 70 73 73 77 75 70 87 67 61 84 71 76 69 74 74 86 82 83 88 89 96 92 93 91
11 11 15 13 24 24 17 18 16 13 11 13 14 16 21 24 28 33 34 35 37 37 47 53 64 72 73 74 75 76 72 69 83 73 75 81 72 70 80 74 76 81 81 85 90 94 93 92 93
11 14 11 15 19 28 31 20 12 12 12 11 15 16 16 22 27 33 35 34 37 36 43 51 59 71 75 74 73 76 78 77 72 82 71 78 76 81 84 84 78 80 81 86 86 88 91 94 95
13 12 13 15 22 18 21 15 16 15 11 11 11 13 17 20 25 31 34 34 37 37 39 46 53 65 71 73 76 75 76 78 75 72 86 64 80 70 86 85 81 84 80 80 88 90 80 90 96

GFSSGP_sfc_rhum_048.txt.gz
RH
77 73 79 88 98 96 90 79 68 81 79 63 42 51 71 87 78 92 86 86 80 89 86 80 82 79 78 82 80 80 76 77 79 77 76 75 76 75 75 75 73 73 72 72 71 72 72 70 67
74 74 87 96 99 97 83 62 75 65 55 49 50 53 67 90 82 92 95 79 81 85 88 84 84 81 78 81 80 79 76 77 77 76 76 77 75 74 77 74 73 72 71 70 70 70 72 70 70
71 62 94 97 96 95 87 66 62 48 45 49 58 57 68 89 79 84 74 76 78 88 90 81 84 83 78 78 79 78 77 78 75 75 76 75 75 73 72 73 72 72 72 71 69 68 68 67 67
68 86 92 97 87 74 69 52 45 47 45 52 60 77 71 65 71 71 68 72 80 87 82 82 82 78 77 79 76 77 75 78 75 76 76 75 73 72 72 71 71 71 71 70 69 68 67 67 66
78 83 92 90 82 71 64 60 42 52 52 58 60 86 88 67 66 63 66 66 88 89 86 80 84 81 79 77 76 75 76 76 76 75 75 74 73 72 72 72 71 71 70 70 70 69 68 68 68
97 86 92 95 80 61 57 78 55 51 60 64 73 76 87 72 67 66 59 79 83 89 87 81 81 82 79 75 76 76 75 74 75 74 74 74 74 73 72 70 70 69 68 68 69 70 70 69 69
75 90 89 79 76 68 69 78 58 59 58 64 58 83 89 75 63 61 66 79 81 84 86 86 79 75 75 77 77 75 75 75 74 74 74 73 72 72 71 70 69 67 67 67 68 70 71 72 70
87 84 82 85 86 80 51 66 49 54 59 53 55 86 95 70 60 58 65 76 82 84 86 92 89 87 90 82 76 75 76 75 74 74 73 72 70 68 69 76 75 66 65 65 66 69 71 70 70
68 88 86 82 78 75 57 57 53 44 57 51 52 62 68 60 58 59 68 79 84 85 89 90 89 96 95 89 77 76 76 75 74 75 74 85 92 85 75 74 69 64 64 64 63 67 70 68 68
76 98 76 51 44 45 54 53 49 55 60 67 67 62 58 56 57 61 69 84 86 89 87 86 89 93 92 73 88 91 82 87 88 91 82 89 89 92 82 76 69 66 69 72 67 67 66 69 76
68 82 56 44 41 40 50 45 49 64 76 70 77 65 52 51 55 66 67 74 80 80 79 80 83 87 86 81 95 98 94 92 92 87 85 87 94 94 93 90 92 72 69 85 82 84 74 78 80
62 49 43 39 34 38 42 38 53 56 64 59 62 54 47 49 65 65 64 68 72 75 73 73 75 79 84 86 90 92 88 88 92 94 86 94 96 94 91 95 90 92 95 88 88 88 83 83 76
50 45 37 36 38 38 34 37 50 55 57 57 55 53 53 60 64 61 59 60 63 67 65 68 71 75 77 83 88 88 85 83 83 94 89 95 92 89 90 95 95 94 93 94 92 89 84 70 64
38 40 34 33 37 40 42 36 48 62 58 59 58 63 62 61 61 58 57 60 56 57 59 62 69 72 71 72 80 79 77 79 81 87 92 92 96 96 96 95 96 96 95 94 87 82 75 75 74
26 34 32 37 36 37 36 42 66 63 60 63 61 61 60 59 56 58 54 58 54 50 52 59 65 69 69 74 73 72 76 64 76 79 91 89 82 93 96 94 97 96 94 88 86 80 85 73 72
30 35 40 36 41 35 36 51 60 62 63 68 62 59 61 60 55 54 50 50 49 49 51 55 52 66 65 77 76 78 73 70 77 75 84 82 82 92 95 96 96 95 93 94 90 88 81 75 74
35 41 36 35 36 36 45 49 56 61 65 68 64 62 60 60 57 54 47 50 48 50 51 55 54 68 66 81 74 76 74 78 74 80 79 82 85 89 89 94 95 88 91 92 87 82 84 79 70
38 46 39 34 38 32 44 42 51 56 63 67 65 62 61 59 57 52 50 46 49 56 52 53 53 68 69 84 81 78 78 78 82 77 82 80 85 85 92 94 89 88 95 90 87 79 83 83 77
28 33 35 30 26 38 34 40 43 55 58 66 67 63 61 59 53 50 49 45 46 58 56 55 56 68 74 83 87 85 78 80 81 79 75 83 83 88 92 94 92 94 93 88 85 76 76 69 76
20 25 31 29 24 27 31 40 39 50 56 57 62 59 58 55 54 52 51 46 46 59 57 58 58 64 71 68 70 82 84 84 79 78 86 80 83 88 89 92 92 94 95 88 88 82 88 75 78
21 24 24 34 28 20 28 34 45 40 47 50 50 48 46 45 52 51 51 49 47 56 59 61 62 66 66 72 80 93 90 86 84 83 86 85 83 87 90 91 93 92 94 93 90 84 78 73 81
26 18 18 23 33 40 25 40 36 42 50 48 49 51 46 40 46 48 48 50 45 50 55 62 66 67 66 76 72 72 70 78 85 78 79 85 83 85 88 89 91 89 95 93 92 80 83 68 69
22 18 20 22 34 41 29 38 30 42 60 54 49 48 44 43 38 41 45 43 42 47 54 60 72 70 70 77 69 69 70 76 85 83 77 86 86 81 81 88 88 90 96 92 91 91 86 80 72
18 22 26 30 34 39 32 30 34 48 57 56 45 50 47 44 39 36 37 38 44 48 52 60 75 75 74 74 73 71 72 87 79 84 81 85 86 87 90 86 88 91 95 93 88 90 88 88 84
23 33 41 47 41 41 33 35 27 38 46 49 46 54 47 39 36 37 39 37 46 55 55 58 69 78 76 74 76 75 74 78 81 82 77 85 94 96 90 93 90 89 92 93 90 93 89 90 94
26 28 48 53 43 33 28 35 24 18 21 39 40 44 44 40 34 36 38 36 40 53 58 58 64 68 76 74 75 74 79 74 70 70 82 71 78 82 80 85 84 85 89 91 95 96 92 90 93
28 29 23 30 42 31 29 23 17 15 17 36 43 42 46 41 35 35 36 37 38 50 59 62 64 62 70 72 73 80 78 69 71 80 80 76 85 81 80 80 85 84 86 89 95 98 95 95 94
20 20 28 29 35 34 26 22 22 16 14 17 38 44 42 36 35 33 35 37 38 44 52 60 63 62 65 70 69 68 72 84 75 72 85 89 78 80 78 81 83 86 84 85 93 95 95 96 97
27 20 29 24 25 24 30 19 17 16 17 15 24 37 37 34 34 36 35 36 37 39 50 59 64 64 67 67 72 71 70 69 90 78 72 70 80 80 81 80 83 84 85 87 91 90 96 94 95
21 18 18 19 25 27 29 18 11 13 13 13 11 31 32 32 33 35 34 35 37 39 48 55 63 65 66 68 71 76 77 75 73 84 79 71 72 80 82 88 87 85 84 85 85 88 81 95 96